GFSSW_prec_cloud_009.txt.gz
Cloud_Cover
0 0 0 0 0 0 0 0 0 0 0 0 0 0 0 0 0 0 0 0 0 0 0 0 6 4 0 0 5 0 23 13 12 13 11 17 56 10 42 92 100 67 5 5 5
46 2 2 0 0 0 0 0 0 0 0 0 0 0 0 0 0 0 0 0 0 0 0 0 12 43 36 5 2 5 75 71 13 6 93 100 95 100 100 100 52 62 12 5 5
94 41 19 0 0 0 0 0 0 0 0 0 0 0 0 0 0 0 0 0 0 0 0 0 6 100 100 100 100 96 100 100 100 100 100 100 100 100 98 11 5 6 46 12 0
1 2 3 19 0 0 0 0 0 0 0 0 0 0 0 0 0 0 0 0 0 0 0 0 4 100 91 100 100 100 100 20 8 98 100 100 96 54 55 5 5 5 8 27 5
4 3 1 0 0 0 0 0 0 0 0 0 0 0 0 0 0 0 0 0 0 0 0 0 0 0 0 0 51 100 100 92 5 17 84 100 51 5 4 0 4 2 5 5 5
0 0 0 0 0 0 0 0 0 0 0 0 5 2 0 0 0 0 0 0 0 0 0 0 0 0 0 0 0 0 6 6 31 91 8 1 2 99 3 3 7 8 5 9 5
7 0 0 0 0 0 0 0 0 0 0 2 66 5 1 0 0 0 0 0 0 0 0 0 0 0 0 0 0 0 4 10 9 9 16 5 84 100 0 26 63 37 58 8 5
19 4 0 0 0 0 0 0 0 1 5 98 77 61 16 5 4 0 0 0 0 0 0 0 0 0 0 0 0 0 0 0 0 3 88 5 55 0 0 0 0 0 0 0 0
4 0 0 4 5 0 0 0 0 4 5 46 77 100 100 6 5 0 0 0 0 0 0 0 0 0 0 0 0 0 0 0 0 0 0 0 0 0 0 0 0 0 0 0 0
32 82 13 0 4 0 3 5 5 8 5 11 16 10 5 3 3 3 0 0 0 0 0 0 0 0 0 0 0 0 0 0 0 0 0 0 0 0 0 0 0 2 0 0 0
4 5 14 12 0 0 0 0 5 56 100 25 4 5 5 5 0 0 0 0 0 0 0 0 0 0 0 0 0 0 0 0 0 0 0 0 0 0 0 0 0 0 0 0 0
0 0 93 99 66 100 100 100 29 5 91 25 20 10 23 8 9 5 1 0 0 0 0 0 3 3 2 0 0 0 0 0 0 0 0 0 0 0 0 0 0 1 1 0 2
0 5 46 82 53 47 15 2 30 88 98 98 80 100 100 100 90 65 79 46 10 5 0 5 5 0 0 4 5 4 5 5 3 3 0 0 0 0 0 2 5 5 5 2 5
5 5 5 67 100 100 100 98 79 3 79 88 72 25 24 2 20 90 83 5 7 6 5 8 89 5 5 5 4 1 5 4 5 2 4 1 0 0 61 97 17 70 15 2 0
5 5 4 1 4 4 2 3 4 1 12 0 27 22 58 67 17 0 5 36 60 98 89 45 85 95 54 22 6 2 5 5 5 4 0 0 0 4 21 94 100 100 100 75 18
24 5 2 4 4 4 0 0 0 0 0 0 0 0 0 0 0 0 0 0 0 0 0 2 3 21 78 98 87 38 22 29 19 5 0 2 6 55 18 54 100 100 100 100 100
1 3 4 4 3 2 1 5 2 5 4 4 0 0 0 0 0 0 0 0 0 0 0 0 1 1 2 1 4 0 0 0 0 1 1 0 0 0 3 5 4 78 100 94 82
0 1 5 5 5 5 0 0 0 0 0 1 2 0 0 0 0 0 0 0 0 0 0 0 0 0 0 0 0 0 0 0 0 0 0 0 0 0 0 4 99 100 92 96 100
4 0 0 0 0 0 0 0 0 4 3 5 0 0 0 0 0 0 0 0 0 0 0 0 0 0 0 0 0 0 0 0 0 0 0 0 0 0 0 0 0 1 33 26 55
4 5 0 0 0 0 0 0 0 0 0 0 1 0 0 0 0 0 0 0 0 0 0 0 0 0 0 0 0 0 0 0 3 3 0 0 0 0 3 1 0 0 0 0 0
2 4 6 5 0 0 0 0 0 0 0 0 0 0 0 0 4 4 5 2 0 3 0 0 2 0 1 3 4 3 5 71 98 100 76 23 0 0 0 13 5 0 0 0 0
0 5 5 5 0 0 1 1 0 0 0 0 0 0 0 0 0 0 0 12 93 93 97 100 100 69 9 5 4 4 30 37 100 37 90 96 18 0 0 0 0 0 0 0 0
3 0 0 5 6 21 5 0 0 0 0 0 0 0 0 0 0 2 38 8 6 31 5 5 22 85 8 2 30 100 100 100 100 100 100 98 51 0 0 0 0 0 0 0 0
2 2 0 4 0 4 5 5 0 2 0 0 1 3 2 2 5 0 0 0 5 12 5 2 1 41 97 30 13 23 84 100 100 100 98 89 100 0 0 0 0 0 0 0 0
0 5 4 5 0 0 4 0 4 5 5 6 100 100 100 100 99 100 63 7 73 70 31 4 4 1 1 0 1 5 55 64 100 100 100 21 100 8 5 5 0 0 0 0 5
5 5 5 5 5 5 5 5 97 10 93 100 100 100 100 62 94 100 61 9 62 5 5 2 50 5 5 1 0 5 0 5 5 0 100 100 100 100 93 91 69 5 5 4 5
23 17 10 76 13 3 3 5 5 5 86 100 100 100 100 100 56 70 21 5 5 5 2 2 5 49 90 1 16 95 0 0 0 0 1 53 100 78 100 100 100 94 98 30 5

GFSSW_prec_cloud_015.txt.gz
Cloud_Cover
0 0 0 1 0 0 0 0 0 0 0 0 0 0 0 0 0 0 0 0 0 2 5 5 5 48 86 42 21 10 5 5 5 5 26 5 5 5 5 39 13 5 14 7 5
2 4 0 0 0 0 0 0 0 0 0 0 0 0 0 0 0 0 0 0 0 2 5 5 5 5 52 61 43 5 5 6 6 12 90 18 5 5 5 13 65 81 27 6 27
6 0 0 0 0 0 0 0 0 0 0 0 0 0 0 0 0 0 0 0 0 0 0 0 5 5 5 78 67 5 3 5 5 5 8 5 5 5 5 5 5 4 5 5 82
52 31 4 0 0 0 0 0 0 0 0 0 0 0 0 0 0 0 0 0 0 0 0 0 0 5 1 5 5 5 17 12 5 5 5 5 5 5 1 2 53 99 100 100 100
100 50 22 0 0 0 0 0 0 0 0 0 0 0 0 0 0 0 0 0 0 0 0 0 0 0 0 1 2 0 8 9 5 5 5 5 12 37 19 2 83 100 100 100 67
58 17 16 7 0 0 0 0 0 0 0 0 0 0 0 0 0 0 0 0 0 0 0 0 0 0 0 0 0 0 0 3 5 5 5 69 100 100 96 5 96 93 88 84 85
21 24 18 3 1 0 0 0 0 0 0 0 0 0 0 0 0 0 0 0 0 0 0 0 0 0 0 0 0 0 0 0 0 0 0 5 100 100 77 65 100 100 38 15 61
16 12 2 0 0 0 0 0 0 0 0 0 0 0 0 0 0 0 0 0 0 0 0 0 0 0 0 0 0 0 0 0 0 2 35 96 100 100 95 97 100 100 100 97 71
4 0 0 0 5 0 0 0 0 0 0 0 0 0 0 0 5 1 2 3 0 0 0 0 0 0 0 0 0 0 0 0 0 0 0 0 81 0 0 3 4 4 4 44 42
0 0 0 0 0 0 0 0 0 0 0 0 0 0 0 26 41 91 19 6 5 0 0 0 0 0 0 0 0 0 0 0 0 0 0 0 15 2 0 0 5 5 0 0 0
32 3 0 0 0 0 0 0 0 0 0 1 0 66 100 100 100 100 82 44 5 2 4 0 0 0 0 0 0 0 0 0 0 0 0 0 4 5 0 0 0 0 0 0 0
14 9 65 64 5 9 6 30 14 0 2 5 5 6 2 5 4 4 5 3 0 0 0 0 1 0 0 0 0 0 0 0 0 0 0 0 0 0 4 1 5 1 0 0 0
1 9 21 58 7 80 97 93 80 77 22 87 100 69 9 1 0 0 0 0 0 0 2 3 0 0 0 0 0 0 0 0 0 0 0 0 1 0 2 5 0 1 0 0 0
0 0 0 0 3 28 81 11 12 18 80 49 42 16 5 22 47 88 43 13 5 5 5 5 3 5 5 1 0 0 0 0 0 0 0 0 0 47 5 5 0 1 0 0 0
0 0 0 0 0 0 0 0 0 1 0 0 0 0 4 5 4 5 3 0 0 4 2 3 0 1 2 0 4 0 3 5 5 5 0 0 0 0 98 8 5 0 0 4 0
0 0 0 0 0 0 0 0 0 0 0 0 0 0 0 0 0 0 0 0 0 2 1 2 0 0 0 0 0 0 0 0 0 0 0 0 0 0 99 32 18 5 5 29 5
1 1 0 0 0 0 0 0 0 0 0 0 0 0 0 0 0 0 0 0 0 0 0 0 0 0 0 0 0 0 0 0 0 0 0 0 0 0 2 7 5 4 2 11 89
0 5 5 5 5 0 0 0 0 0 0 0 0 0 0 0 0 0 0 0 0 0 0 0 0 0 0 0 0 0 0 0 0 0 0 0 0 0 0 3 5 4 0 0 0
7 5 5 5 4 5 8 5 3 1 5 5 1 0 0 0 0 0 0 0 23 0 7 1 0 0 0 0 0 0 0 1 3 0 4 0 0 0 0 0 0 0 0 0 0
45 5 5 5 5 5 5 5 5 5 5 5 5 5 5 4 0 0 3 1 27 12 0 25 4 0 0 3 1 4 0 2 5 6 5 0 0 0 0 0 0 0 0 0 0
3 1 2 5 5 5 5 18 11 5 22 9 5 5 8 5 5 5 5 5 2 0 0 0 33 1 0 0 0 0 0 0 1 0 6 18 12 13 67 81 58 28 70 6 0
0 0 0 0 0 2 5 5 5 7 9 36 5 5 27 5 5 2 0 4 0 0 4 1 7 2 0 4 4 5 52 100 100 12 62 100 75 0 0 34 100 100 100 83 72
0 0 0 0 0 0 0 0 0 0 0 3 2 1 0 3 0 1 2 0 5 3 0 4 8 51 99 100 86 9 3 1 0 0 0 2 0 0 0 6 99 38 86 79 100
0 0 0 0 0 0 0 0 0 1 1 0 0 0 0 0 0 0 0 5 4 0 2 4 10 4 0 1 3 5 3 5 29 100 45 39 4 0 2 3 5 29 100 100 98
0 0 0 0 0 0 0 0 0 1 0 0 0 4 4 5 5 4 0 0 1 0 1 2 24 3 5 5 5 5 6 1 5 7 72 4 8 4 29 78 5 88 100 98 100
0 0 0 0 0 0 0 0 0 0 0 0 2 2 5 5 1 5 22 37 25 3 5 61 88 71 84 5 1 6 0 0 0 5 5 51 100 100 100 54 100 86 100 14 5
5 5 5 5 5 4 3 0 3 0 0 0 0 5 5 4 5 5 5 4 4 5 4 85 95 100 98 0 9 12 0 0 0 0 0 53 83 100 100 100 8 66 98 100 97

GFSSW_prec_cloud_018.txt.gz
Cloud_Cover
0 0 0 0 0 0 0 0 0 0 0 0 0 0 0 0 0 0 0 0 0 3 4 13 99 90 87 22 98 100 72 5 28 5 9 5 5 38 5 5 5 5 5 4 5
0 0 0 0 0 0 0 0 0 0 0 0 0 0 0 0 0 0 0 0 0 0 5 6 60 25 78 67 87 100 76 44 34 47 64 10 5 31 5 5 14 5 0 5 5
2 5 2 0 0 0 0 0 0 0 0 0 0 0 0 0 0 0 0 0 0 0 5 5 5 9 43 25 67 48 69 100 100 49 8 5 5 5 6 5 36 5 5 0 1
100 73 25 0 0 0 0 0 0 0 0 0 0 0 0 0 0 0 0 0 0 0 0 0 0 0 5 20 5 15 47 90 58 52 55 36 7 5 5 4 5 5 5 5 6
1 5 13 1 0 0 0 0 0 0 0 0 0 0 0 0 0 0 0 0 0 0 0 0 0 0 0 4 5 3 11 13 49 37 5 34 24 36 36 1 67 33 5 17 22
27 15 1 0 0 0 0 0 0 0 0 0 0 0 0 0 0 0 0 0 0 0 0 0 0 0 0 0 0 0 0 3 5 5 12 97 99 97 32 5 22 100 100 100 100
25 17 1 0 0 0 0 0 0 0 0 0 0 0 0 0 0 0 0 0 0 0 0 0 0 0 0 0 0 0 0 0 1 0 5 67 10 5 4 5 5 10 100 100 100
15 0 0 0 0 0 0 0 0 0 0 0 0 0 0 0 0 0 0 0 0 0 0 0 0 0 0 0 0 0 0 0 0 0 0 3 12 1 1 3 3 16 100 100 100
0 0 0 0 0 0 0 0 0 0 0 0 0 0 0 0 0 0 0 2 3 2 0 0 0 0 0 0 0 0 0 0 0 0 0 0 14 0 0 4 5 5 12 64 19
0 0 0 0 1 4 5 0 0 0 0 0 0 0 0 0 0 0 4 0 0 0 1 0 0 0 0 0 0 0 0 0 0 0 0 0 3 1 0 0 5 5 5 0 0
5 5 3 0 0 0 0 0 0 0 0 0 0 0 0 0 0 5 23 34 35 7 3 2 0 0 0 0 0 0 0 0 0 0 0 0 1 11 0 0 0 0 0 0 0
99 13 8 2 6 5 1 0 0 3 5 5 5 2 5 5 11 4 0 2 3 2 2 1 0 0 0 0 0 0 0 0 0 0 0 0 0 5 35 5 3 1 1 0 0
1 59 100 6 5 6 7 66 72 44 93 88 72 46 83 73 85 79 52 5 4 5 5 5 5 0 0 0 0 0 0 0 0 0 0 0 2 6 5 31 4 0 0 0 0
0 0 0 0 0 2 0 2 5 21 17 45 89 71 46 8 24 40 16 5 5 5 5 5 5 2 4 0 0 0 0 0 0 0 0 0 6 98 78 88 98 5 0 0 5
0 0 0 0 0 0 0 0 0 0 0 0 0 0 0 0 1 0 2 5 5 5 5 2 5 5 0 0 0 0 0 0 0 0 0 0 0 62 100 93 96 43 50 18 51
0 0 0 0 0 0 0 0 0 0 0 0 0 0 0 0 0 0 0 0 0 0 0 0 0 0 0 0 0 0 0 0 0 0 0 0 0 8 93 100 44 30 86 100 94
0 0 0 0 0 0 0 0 0 0 0 0 0 0 0 0 0 0 0 0 0 0 0 0 0 0 0 0 0 0 0 0 0 0 0 0 0 0 0 0 3 1 0 0 2
5 4 3 0 5 4 0 1 0 0 0 0 0 0 0 1 0 0 0 0 0 0 0 0 0 0 0 0 0 0 0 0 0 0 0 0 0 0 0 0 0 0 0 0 0
4 4 0 0 5 5 5 4 5 5 2 0 0 4 0 1 5 5 5 10 0 0 0 2 5 0 0 0 0 0 1 0 4 0 0 0 0 0 0 0 0 0 0 0 0
33 13 5 4 0 2 2 4 5 5 5 5 5 5 5 5 5 2 0 0 50 0 0 12 0 0 4 1 0 0 0 0 0 0 0 0 0 0 0 0 0 0 0 0 0
5 5 2 0 4 4 4 5 4 4 3 5 5 5 5 5 4 5 5 5 0 0 0 0 0 1 0 0 0 0 0 5 4 3 2 13 0 0 0 0 1 6 69 75 89
5 0 0 0 0 5 5 4 5 5 5 5 5 0 1 0 0 0 0 0 0 0 0 0 0 0 0 0 0 4 33 51 99 4 3 5 0 0 0 0 0 0 45 5 4
0 0 0 0 0 0 0 0 0 4 5 5 4 3 0 0 0 0 0 0 0 0 0 0 0 0 0 0 1 4 3 0 2 9 6 81 19 37 0 0 2 49 5 5 3
0 0 0 0 0 0 0 0 0 0 3 4 0 0 0 0 0 0 0 0 0 0 0 0 0 0 0 0 16 6 11 4 5 86 15 93 84 34 2 5 37 5 96 99 98
0 4 0 0 5 1 0 0 0 0 0 0 0 0 0 0 0 0 0 0 0 0 0 1 4 4 5 5 5 5 5 4 1 2 54 0 5 4 5 5 6 98 98 100 74
5 5 5 5 0 0 0 0 0 0 0 0 0 0 0 0 0 0 0 1 2 3 5 44 55 50 54 32 6 56 11 0 5 5 3 1 5 18 5 5 12 82 56 100 100
5 6 8 5 2 5 5 1 0 0 0 0 3 0 0 0 1 0 3 5 5 5 54 70 75 98 88 9 13 82 1 1 5 2 0 5 5 5 63 13 4 5 32 30 85

GFSSW_prec_cloud_024.txt.gz
Cloud_Cover
0 0 0 0 0 0 0 0 0 0 0 0 0 0 0 0 0 0 5 3 1 1 0 5 3 5 58 96 81 32 5 32 100 100 41 11 5 5 5 5 5 0 5 5 12
0 1 2 0 0 0 0 0 0 0 0 0 0 0 0 0 0 0 0 0 0 0 0 0 0 5 12 78 57 97 24 8 35 100 100 100 56 6 16 35 5 5 5 5 5
5 7 12 1 0 0 0 0 0 0 0 0 0 0 0 0 0 0 0 0 3 5 1 0 5 5 5 6 33 28 45 98 53 100 100 100 72 86 100 62 9 9 9 6 1
0 0 0 0 0 0 0 0 0 0 0 0 0 0 0 0 0 0 0 0 0 0 0 5 5 5 5 8 79 96 23 91 89 91 98 100 100 100 35 5 31 84 82 32 8
10 0 0 0 0 0 0 0 0 0 0 0 0 0 0 0 0 0 0 0 0 0 0 0 0 5 11 6 5 69 6 41 62 62 52 70 18 99 82 34 5 12 29 5 5
30 12 0 0 0 0 0 0 0 0 0 0 0 0 0 0 0 0 0 0 0 0 0 0 0 5 5 2 5 5 1 2 4 5 26 98 52 6 5 5 5 5 3 3 3
11 2 0 0 0 0 0 0 0 0 0 0 0 0 0 0 0 0 0 0 3 5 5 0 0 0 0 0 0 0 0 0 0 0 0 5 22 5 3 5 0 0 0 0 0
0 0 0 0 0 0 0 0 0 0 0 0 0 0 0 0 0 0 0 4 0 5 5 5 5 5 0 0 0 0 0 0 0 0 0 0 67 0 0 1 0 0 0 0 0
0 0 0 0 0 0 0 0 0 0 0 0 0 0 0 0 0 0 0 0 0 0 0 0 0 0 0 0 0 0 0 0 0 0 0 0 0 0 0 0 0 0 0 0 0
0 0 0 0 0 0 0 0 0 0 0 0 0 0 0 4 4 1 0 0 0 0 0 0 0 0 0 0 0 0 0 0 0 0 0 0 4 5 0 0 0 0 0 0 0
0 0 0 0 0 0 0 0 0 0 0 0 0 0 0 0 0 0 0 0 0 0 0 0 0 0 0 0 0 0 0 0 0 0 0 0 5 5 3 0 0 0 0 0 0
0 0 0 0 0 0 0 0 0 0 0 0 0 0 0 0 0 0 0 0 2 1 1 3 2 0 0 0 0 0 0 0 0 0 0 0 11 5 100 2 4 0 1 2 0
3 2 0 0 0 0 0 0 0 0 0 0 0 0 0 1 2 4 34 45 2 3 3 0 2 0 0 0 0 0 0 0 1 4 0 0 4 5 3 5 0 0 5 3 0
5 5 5 0 0 0 0 0 0 1 1 0 0 9 0 0 2 5 78 40 5 0 0 0 0 0 0 0 0 0 0 0 0 1 4 2 2 97 1 2 2 0 0 0 0
23 49 6 94 16 48 3 3 3 1 5 4 0 0 4 2 1 0 0 0 0 0 0 4 3 4 3 0 0 0 1 4 5 2 5 29 2 83 93 6 0 0 0 0 0
0 0 0 0 0 0 0 0 0 0 0 0 0 0 0 0 0 0 0 0 0 0 0 0 2 0 0 0 0 0 0 0 0 0 2 0 1 9 0 0 0 0 0 0 0
0 0 0 0 0 0 0 0 0 0 0 0 0 0 0 0 0 0 0 0 0 0 0 0 0 0 0 0 0 0 0 0 0 0 0 0 0 0 0 0 0 0 0 0 0
0 24 0 0 0 0 0 0 0 0 0 0 0 0 0 0 0 0 0 0 0 0 0 0 4 0 0 0 0 0 0 0 0 0 0 0 0 0 0 0 0 0 0 0 0
0 0 0 0 0 0 0 0 0 0 0 0 0 0 0 0 0 0 0 0 0 0 0 0 0 0 0 0 0 0 0 0 0 0 0 0 0 5 1 0 0 0 0 0 0
1 1 1 0 0 0 0 0 0 0 0 0 0 0 0 0 0 0 0 0 0 0 0 0 0 0 0 0 0 0 0 0 0 0 0 0 0 0 1 0 0 0 0 0 0
0 5 0 3 5 5 1 1 0 0 0 0 0 0 0 0 0 0 1 1 1 1 2 0 0 0 0 0 0 0 0 0 0 0 0 0 0 5 0 0 0 0 0 0 0
0 5 0 0 0 0 0 0 0 0 0 0 0 0 0 0 0 0 0 0 0 0 0 0 0 0 0 0 0 0 0 0 0 0 0 6 0 0 0 0 0 0 0 3 0
5 3 4 5 0 1 0 0 0 0 0 0 0 0 0 0 0 0 0 0 0 0 0 0 0 0 0 0 0 0 3 5 0 2 0 46 5 0 0 0 0 1 5 5 5
0 0 0 0 0 0 0 0 0 0 0 0 0 0 0 0 0 0 0 0 0 0 0 0 0 0 0 0 0 1 0 1 0 0 0 2 0 0 0 1 5 5 5 1 2
0 0 0 0 4 0 0 4 0 0 1 3 0 0 0 0 0 0 0 0 0 0 0 0 0 0 0 0 0 5 1 5 0 0 10 0 58 42 5 0 0 6 13 2 0
0 0 3 5 4 5 5 5 5 5 5 0 3 0 3 0 0 0 0 0 0 0 0 0 0 0 0 0 4 5 8 4 0 1 52 11 0 0 5 0 4 0 5 4 0
0 0 1 4 5 5 5 5 5 5 5 0 0 4 4 1 0 0 0 0 0 0 0 0 0 4 4 0 4 0 4 0 0 4 24 3 0 0 0 2 0 0 15 49 5

GFSSW_prec_cloud_027.txt.gz
Cloud_Cover
0 0 0 0 0 0 0 0 0 0 0 0 0 0 0 0 0 0 0 1 3 2 5 5 5 26 84 57 27 51 46 14 48 5 5 95 100 100 96 7 5 5 5 9 12
0 0 0 0 0 0 0 0 0 0 0 0 0 0 0 0 0 0 0 0 0 0 1 5 4 5 42 76 34 21 11 88 100 90 30 30 85 100 100 99 14 72 61 48 60
3 18 0 0 0 0 0 0 0 0 0 0 0 0 0 0 0 0 0 0 0 0 0 0 5 5 5 5 21 98 57 34 64 100 95 12 10 67 81 10 68 67 5 64 8
0 0 0 0 0 0 0 0 0 0 0 0 0 0 0 0 0 0 0 0 0 0 2 1 4 5 4 4 5 7 7 21 12 93 88 80 38 50 12 73 31 5 5 5 5
17 7 0 0 0 0 0 0 0 0 0 0 0 0 0 0 0 0 0 0 0 0 0 5 5 4 5 4 5 5 5 55 92 92 100 100 37 33 2 6 5 0 2 4 4
26 5 0 0 0 0 0 0 0 0 0 0 0 0 0 0 0 0 0 0 0 0 0 0 2 0 3 5 5 5 5 5 5 7 44 65 5 5 5 3 0 0 0 0 0
8 0 0 0 0 0 0 0 0 0 0 0 0 0 0 0 0 0 0 0 0 0 0 0 4 5 5 0 1 2 5 5 5 5 10 6 4 0 0 0 0 0 0 0 0
1 0 0 0 0 0 0 0 0 0 0 0 0 0 0 0 0 0 0 0 0 0 0 0 5 4 0 0 0 4 5 0 0 0 0 0 0 0 0 0 0 0 0 0 0
0 0 0 0 0 0 0 0 0 0 0 0 0 0 0 0 0 0 0 0 0 0 0 0 0 0 0 0 0 2 2 1 1 4 5 4 2 0 0 0 0 0 0 0 0
0 0 0 0 0 0 1 0 3 5 0 4 4 0 0 0 0 0 0 0 4 1 0 0 0 0 4 4 5 5 5 0 2 0 5 5 15 0 0 0 0 0 0 0 0
0 0 0 0 0 0 0 0 0 0 0 0 1 0 0 0 0 0 0 0 0 0 0 0 0 0 0 0 0 0 0 0 0 0 0 0 4 2 0 0 0 0 0 0 0
0 0 0 0 0 0 0 0 0 0 0 0 3 3 0 0 0 0 0 0 0 0 0 0 0 0 0 0 0 0 0 0 0 0 0 1 0 5 0 0 0 0 0 0 0
0 0 0 0 0 0 0 0 0 0 0 0 0 0 0 0 0 0 0 0 1 0 0 0 0 0 0 0 0 0 0 0 0 0 0 0 1 0 0 0 0 0 0 0 0
1 1 0 0 0 0 0 0 0 0 0 0 0 0 0 4 30 25 1 0 2 0 0 0 0 0 0 0 0 0 0 0 0 0 5 0 10 0 0 0 0 0 0 0 0
45 9 5 5 5 5 1 5 5 0 5 4 5 6 6 5 1 0 0 0 3 0 2 0 0 0 1 2 5 5 5 0 0 2 5 4 0 4 0 0 0 0 0 0 0
34 70 77 60 8 5 21 27 35 42 68 5 3 2 0 0 0 0 0 1 0 0 0 0 0 0 0 0 3 3 2 0 2 4 0 0 0 0 0 0 0 0 0 0 0
0 0 0 0 0 1 0 0 0 0 0 0 0 0 0 0 0 0 0 0 0 0 0 0 0 0 0 0 0 0 0 0 0 0 0 0 0 0 0 0 0 0 0 0 0
0 0 0 0 0 0 0 0 0 0 0 0 0 0 0 0 0 0 0 0 0 0 0 0 0 0 0 0 0 0 0 0 0 0 0 0 0 0 0 0 0 0 0 0 0
0 0 0 0 0 0 0 0 0 0 0 0 0 0 0 0 0 0 0 0 0 0 0 0 0 0 0 0 0 0 0 0 0 0 0 0 0 0 0 0 0 0 0 0 0
0 0 0 0 0 0 0 0 0 0 0 0 1 0 0 0 0 0 0 0 0 0 0 0 0 0 0 0 0 0 0 0 0 0 0 0 0 1 0 0 0 0 0 0 0
0 2 2 0 0 0 0 0 0 1 1 1 0 0 0 0 0 0 0 0 0 0 0 0 0 0 0 0 0 0 0 0 0 0 0 1 1 6 0 0 0 0 0 0 0
4 5 5 4 4 4 0 0 0 0 0 0 0 0 0 0 0 0 0 0 0 0 0 0 0 0 0 0 0 0 0 0 0 0 0 4 2 0 0 0 0 0 0 0 0
5 5 5 5 5 4 4 0 0 0 0 0 0 0 0 0 0 0 0 0 0 0 0 0 0 0 0 0 0 0 0 0 0 1 0 3 0 0 0 0 0 0 1 3 0
5 2 0 4 2 0 0 0 0 0 0 0 0 0 0 0 0 0 0 0 0 0 0 0 0 0 0 0 0 0 0 0 0 5 0 0 0 0 0 0 0 0 0 0 0
0 0 0 0 0 0 0 4 0 0 0 0 0 0 0 0 0 0 0 0 0 0 0 0 0 0 0 0 0 0 0 0 0 0 3 0 0 0 0 0 0 0 0 0 0
0 0 0 0 0 0 4 0 5 5 5 26 7 5 5 2 0 0 0 0 0 0 0 0 0 0 0 0 0 0 0 0 0 0 0 0 0 0 0 0 0 0 0 0 1
0 0 0 0 0 0 0 0 4 5 32 5 5 10 8 8 5 0 0 0 0 0 1 3 0 2 5 0 0 2 0 1 0 0 0 0 0 0 0 0 0 0 0 2 6

GFSSW_prec_cloud_030.txt.gz
Cloud_Cover
0 0 0 0 0 0 0 0 0 0 0 0 0 90 100 90 5 5 5 5 5 5 5 5 10 5 5 6 44 14 5 79 5 5 5 11 12 53 17 20 85 100 100 90 55
0 0 0 0 0 0 0 0 0 0 0 0 0 74 100 74 5 5 3 4 5 5 5 5 5 5 5 5 36 16 44 82 54 9 5 5 40 6 24 1 5 32 100 90 47
13 32 0 0 0 0 0 0 0 0 0 0 0 1 70 32 5 7 0 0 3 5 5 5 5 5 5 5 5 5 12 27 90 94 64 34 73 51 14 5 5 1 7 62 12
0 0 0 0 0 0 0 0 0 0 0 0 0 0 0 3 31 47 5 4 0 0 4 3 0 2 4 0 4 5 5 41 44 100 98 42 5 5 9 20 2 0 0 3 5
22 0 0 0 0 0 0 0 0 0 0 0 0 0 0 0 0 0 0 0 0 0 0 0 5 4 5 5 5 5 5 12 7 61 53 47 16 5 5 5 5 1 2 3 5
4 3 0 0 0 0 0 0 0 0 0 0 0 0 0 0 0 0 0 0 0 0 0 0 0 3 5 5 5 16 5 7 6 6 5 12 5 5 5 5 5 0 2 3 1
4 0 0 0 0 0 0 0 0 0 0 0 0 0 0 0 0 0 0 0 0 0 0 0 0 0 0 5 5 6 5 5 5 42 59 23 4 0 0 0 0 0 0 0 0
0 0 0 0 0 0 0 0 0 0 0 0 0 0 0 0 0 0 0 0 0 0 0 0 0 0 0 4 5 5 5 0 5 1 4 0 0 0 0 0 0 0 0 0 0
0 0 0 0 0 0 0 0 0 0 0 0 0 0 0 0 0 0 0 0 0 0 0 0 0 0 1 3 2 0 0 0 0 5 0 0 0 0 0 0 0 0 0 0 0
0 0 0 0 0 0 0 0 0 0 0 0 0 0 0 0 0 0 0 0 0 0 0 0 0 0 1 0 0 0 0 0 0 0 0 2 0 0 0 0 0 0 0 0 0
0 0 0 0 0 0 0 0 0 0 0 1 0 0 0 0 0 0 0 0 0 0 5 5 0 0 0 0 0 0 0 0 0 3 5 0 4 2 0 0 0 0 0 0 0
0 0 0 0 0 0 0 0 0 0 0 0 0 5 4 0 0 0 2 5 5 1 0 0 0 0 0 0 0 0 0 0 0 0 0 0 0 0 0 0 0 0 0 0 0
0 0 0 0 0 0 0 0 0 0 0 0 0 0 0 1 0 0 0 4 0 0 0 0 0 0 0 0 0 0 0 0 0 0 0 0 0 0 0 1 0 0 0 0 0
0 0 0 0 0 0 0 0 0 0 5 3 0 0 0 0 0 0 0 0 2 5 1 0 0 0 0 0 0 0 0 1 5 5 1 0 0 0 0 0 0 0 0 0 0
0 0 0 0 0 0 0 1 5 5 5 5 2 0 0 0 5 4 1 0 0 0 0 0 0 0 0 0 0 0 0 0 1 4 5 0 0 0 0 0 0 0 0 0 0
53 10 1 1 0 0 0 0 3 1 1 1 2 4 5 5 4 0 0 0 0 0 0 0 0 0 0 5 3 0 1 0 4 0 0 0 0 0 0 0 0 0 0 0 0
83 98 100 93 86 83 86 90 94 94 24 30 6 5 4 0 0 0 0 0 0 0 0 0 0 0 2 5 4 4 1 0 0 0 0 0 0 0 0 0 0 0 0 0 0
1 5 6 6 6 6 12 26 11 3 0 0 0 0 0 0 0 0 0 0 0 0 0 0 0 0 0 0 0 0 0 0 0 0 0 0 0 0 0 0 0 0 0 0 0
0 0 0 0 0 0 0 0 0 0 0 0 0 0 0 0 0 0 0 0 0 0 0 0 0 0 0 0 0 0 0 0 0 0 0 1 0 0 0 0 0 0 0 0 0
0 0 0 0 0 0 0 0 0 0 0 0 0 0 0 0 0 0 0 2 2 0 0 0 0 0 0 0 3 0 0 0 0 0 0 0 0 0 0 0 0 0 0 0 0
0 0 0 0 0 0 0 0 0 0 0 0 0 0 2 5 3 3 1 0 0 0 0 0 0 0 0 0 0 0 0 0 0 0 0 0 1 0 0 0 0 0 0 0 0
5 5 5 5 5 4 4 4 5 5 5 5 5 2 0 0 0 0 0 0 0 0 0 0 0 0 0 0 0 0 0 0 0 0 0 4 1 0 0 0 0 0 0 0 0
5 5 5 5 5 5 5 5 4 0 0 0 2 1 4 1 0 0 0 0 0 0 0 0 0 0 0 0 0 1 5 0 0 2 3 0 0 0 0 0 0 0 0 0 0
5 5 14 5 5 5 5 2 0 0 1 1 0 0 0 0 0 0 0 0 0 0 0 0 0 0 0 0 0 0 0 0 0 4 0 0 0 0 0 0 0 0 0 0 0
5 5 5 5 5 2 0 0 0 0 0 0 0 3 4 4 4 1 0 0 0 0 0 0 0 0 0 0 0 0 0 0 0 0 0 0 0 0 0 0 0 0 0 0 0
0 0 0 0 0 0 0 5 5 0 0 0 0 0 5 5 5 5 5 5 5 5 5 1 0 0 0 0 0 3 5 0 0 0 0 0 0 0 0 0 0 0 0 0 0
0 0 0 0 0 0 0 0 0 0 0 0 0 0 0 4 4 5 5 5 5 3 0 0 0 0 1 0 0 5 5 0 0 0 0 0 0 0 0 0 0 0 0 0 4

GFSSW_prec_cloud_033.txt.gz
Cloud_Cover
0 0 0 0 0 0 0 0 0 0 0 0 5 39 100 100 94 93 74 37 64 12 54 5 5 5 5 5 5 0 5 2 5 5 94 76 23 5 2 1 8 74 69 5 5
0 0 0 0 0 0 0 0 0 0 0 0 2 17 100 100 100 96 23 5 5 5 85 50 5 5 5 5 5 4 3 5 5 5 10 100 42 24 52 11 5 5 81 100 100
0 1 0 0 0 0 0 0 0 0 0 0 0 5 96 93 93 100 100 88 6 5 6 45 36 6 5 5 5 3 4 5 61 5 8 5 8 8 5 7 44 51 88 97 42
0 0 0 0 0 0 0 0 0 0 0 0 0 0 4 21 99 100 100 65 63 5 5 5 5 5 5 5 5 5 5 5 20 70 6 5 5 5 5 5 5 27 5 5 56
0 0 0 0 0 0 0 0 0 0 0 0 0 0 0 4 90 100 100 100 74 6 5 2 5 5 20 97 27 5 5 5 5 5 5 5 2 0 5 51 32 5 5 5 5
8 0 0 0 0 0 0 0 0 0 0 0 0 0 0 0 5 97 100 99 58 53 31 13 5 5 49 89 39 7 5 7 7 7 5 5 5 5 5 5 5 5 5 5 5
30 0 0 0 0 0 0 0 0 0 0 0 0 0 0 0 0 11 100 100 96 94 82 43 5 5 3 0 18 58 15 71 37 69 5 4 0 5 0 3 4 5 4 1 2
28 0 0 0 0 0 0 0 0 0 0 0 0 0 0 0 0 0 22 89 100 99 50 16 5 0 0 0 2 1 2 3 2 1 0 0 0 0 0 0 0 0 0 0 0
0 0 0 0 0 0 0 0 0 0 0 0 0 0 0 0 0 0 0 0 0 4 5 0 0 1 0 0 1 0 0 0 0 0 0 0 0 0 0 0 0 0 0 0 0
0 0 0 0 0 0 0 0 0 0 0 0 0 0 0 0 0 0 0 0 0 0 4 5 0 0 0 0 0 0 0 0 0 0 0 0 0 0 0 0 0 0 0 0 0
0 0 0 0 0 0 0 0 0 0 0 0 0 0 0 0 0 0 0 0 0 0 0 0 0 0 0 0 0 0 0 0 0 0 0 0 0 0 0 0 0 0 0 0 0
0 0 0 0 0 0 0 0 0 0 0 0 0 0 0 0 0 0 0 0 0 0 0 0 0 0 0 0 0 0 0 3 0 0 0 0 0 0 0 0 0 0 0 0 0
0 0 0 0 0 0 0 0 0 0 0 0 0 0 0 0 0 0 0 0 0 0 0 0 0 0 0 0 0 0 0 0 0 0 0 0 0 0 0 0 0 0 0 0 0
0 0 0 0 0 0 0 0 0 0 0 0 0 0 0 0 0 0 0 0 0 0 0 0 0 0 0 0 0 0 0 0 0 0 0 0 0 3 3 0 0 0 0 0 0
0 0 0 0 0 0 0 0 0 0 0 0 1 5 5 3 0 0 0 0 0 0 4 0 0 0 0 0 0 0 0 0 0 0 0 0 0 5 0 0 0 0 0 0 0
0 0 0 0 0 0 0 0 0 2 5 5 5 5 5 5 2 3 13 18 5 2 0 0 0 0 0 0 0 0 0 0 0 1 0 0 0 2 0 0 0 0 0 0 0
1 0 0 0 0 0 0 0 5 5 5 5 5 5 5 24 33 9 8 5 0 0 0 0 0 0 0 0 0 0 0 0 0 0 0 0 0 0 0 0 0 0 0 0 0
97 75 20 5 4 4 4 4 9 2 5 5 5 5 58 11 6 5 1 0 0 0 0 0 0 0 0 0 3 0 0 0 0 0 0 0 0 0 0 0 0 0 0 0 0
22 75 84 81 100 100 98 100 98 57 23 33 6 5 5 2 0 0 0 0 2 0 0 0 0 0 0 0 0 0 0 0 0 0 0 0 0 0 0 0 0 0 0 0 0
5 46 86 83 60 44 15 28 5 5 5 3 0 0 0 0 0 0 0 0 0 0 0 0 0 0 0 0 0 0 0 0 0 0 0 0 0 0 0 0 0 0 0 0 0
0 0 0 2 2 2 3 1 0 0 0 0 0 0 0 0 0 0 0 0 0 0 0 0 0 0 0 0 0 0 0 0 0 0 0 0 1 0 0 0 0 0 0 0 0
5 0 0 0 0 0 0 0 0 0 0 0 0 0 0 0 0 0 0 0 0 0 0 0 0 0 0 0 0 0 0 0 0 0 0 2 1 0 0 0 0 0 0 0 0
1 5 5 5 5 5 3 1 0 0 0 0 0 0 0 0 0 0 0 0 2 0 0 0 0 0 0 0 0 0 0 0 0 2 0 0 0 0 0 0 0 0 0 0 0
5 5 5 5 5 5 5 5 5 4 2 2 0 0 1 0 0 0 0 0 0 0 0 0 0 0 0 0 0 0 0 0 0 5 0 0 0 0 0 0 0 0 0 0 0
5 5 5 5 5 5 5 5 5 5 5 2 0 3 4 2 0 0 0 0 0 0 0 0 0 0 0 0 0 0 0 0 0 0 0 0 0 0 0 0 0 0 0 0 0
0 2 5 5 5 5 5 5 4 2 0 0 0 0 0 0 0 0 0 0 0 0 0 0 0 0 0 0 0 0 5 0 0 0 0 0 0 0 0 0 0 0 0 0 0
4 0 0 0 0 0 0 0 0 0 0 0 0 0 0 0 0 0 0 0 0 0 0 0 0 0 0 2 0 0 5 4 0 0 0 0 0 0 0 0 0 0 0 0 0

GFSSW_prec_cloud_039.txt.gz
Cloud_Cover
29 1 75 88 0 0 0 0 0 0 0 0 97 100 94 61 13 40 45 5 10 4 4 5 5 5 5 5 5 0 4 5 5 5 5 1 5 5 10 5 25 20 8 4 5
5 0 0 0 0 0 0 0 0 0 0 0 9 100 100 100 92 62 80 42 5 5 78 5 5 5 5 5 5 0 0 0 4 5 5 5 5 5 5 5 5 12 6 5 5
5 0 0 0 0 0 0 0 0 0 0 0 9 96 100 91 100 100 55 98 5 5 19 5 5 5 5 5 5 5 5 5 1 5 5 5 5 5 6 5 5 5 5 62 13
0 0 0 0 0 0 0 0 0 0 0 0 10 7 34 62 100 100 100 100 86 98 33 5 5 4 4 2 5 5 5 5 5 5 3 5 34 56 5 5 5 5 5 5 18
0 0 0 0 0 0 0 0 0 0 0 0 5 59 44 54 96 100 100 100 96 46 13 5 5 3 1 4 2 5 3 2 5 5 5 5 40 66 6 8 11 5 5 5 5
0 0 13 0 0 0 0 0 0 0 0 0 2 5 4 33 12 100 100 100 76 34 56 14 5 5 3 3 0 0 2 5 5 5 45 12 10 5 5 6 6 6 16 5 3
2 14 0 0 0 0 0 0 0 0 0 0 0 4 3 6 5 82 100 100 100 34 18 76 33 5 5 5 0 5 4 3 5 5 7 15 7 5 5 6 5 0 0 0 0
0 2 100 14 0 0 0 0 0 0 0 0 0 0 0 0 0 5 100 46 24 100 98 58 44 89 34 5 5 1 5 5 5 0 0 1 1 5 4 3 0 0 0 0 0
43 100 26 0 0 0 0 0 0 0 0 0 0 0 0 0 0 0 3 100 48 26 100 100 99 62 5 5 6 5 5 5 1 1 4 3 0 0 5 5 1 0 0 0 0
97 16 0 0 0 0 0 0 0 0 0 0 0 0 0 0 0 0 3 6 94 58 11 43 74 100 100 100 100 73 5 5 10 6 5 0 0 0 0 0 0 0 0 0 0
6 0 0 0 0 0 0 0 0 0 0 0 0 0 0 0 0 0 0 2 2 35 7 5 5 5 8 79 100 100 62 35 5 5 0 0 0 0 0 0 0 0 0 0 0
0 0 0 0 0 0 0 0 0 0 0 0 0 0 0 0 0 0 0 0 0 0 0 5 5 5 5 5 4 5 12 4 1 0 0 0 0 0 0 0 0 0 0 0 0
0 0 0 0 0 0 0 0 0 0 0 0 0 0 0 0 0 0 0 0 0 0 0 5 4 0 0 2 0 0 0 0 0 0 0 0 0 0 0 0 0 0 0 0 0
0 0 0 0 0 0 0 0 0 0 0 0 0 0 0 0 0 0 0 0 0 0 0 0 0 0 0 0 0 0 0 0 0 0 0 0 1 0 0 0 0 0 0 0 0
0 0 0 0 0 0 0 0 0 0 0 0 0 0 0 0 0 0 0 0 0 0 0 0 0 0 0 0 0 0 0 0 0 0 0 0 0 0 0 0 0 0 0 0 0
0 0 0 0 0 0 0 0 0 0 0 0 0 0 0 0 0 0 0 0 0 0 1 1 0 0 0 0 0 1 1 0 0 0 0 0 0 0 0 0 0 0 0 0 0
0 0 0 0 0 0 0 0 0 0 0 0 0 0 0 0 0 0 0 0 0 0 4 5 5 5 2 2 5 5 5 0 0 0 0 0 0 0 0 0 0 0 0 0 0
0 0 0 0 0 0 0 0 0 0 0 0 0 0 0 0 0 0 0 4 5 5 5 4 5 5 6 39 12 5 0 0 0 0 0 0 0 0 0 0 0 0 0 0 0
3 0 0 0 0 0 0 0 0 0 0 0 0 0 0 0 0 5 5 5 5 5 10 41 56 62 32 5 5 5 0 0 0 0 0 0 0 0 0 0 0 0 0 0 0
5 5 5 5 5 2 1 3 5 5 5 5 5 5 5 6 17 14 37 28 56 54 86 100 95 14 5 5 5 1 0 0 0 0 0 0 0 0 0 0 0 0 0 0 0
0 2 18 50 40 9 6 5 5 5 5 5 5 5 5 37 40 28 37 57 94 100 100 77 19 5 5 1 0 0 0 0 0 0 0 0 5 0 0 0 0 0 0 0 0
0 0 0 0 3 20 98 94 75 79 99 98 96 97 99 98 99 100 100 100 100 100 23 7 5 0 0 0 0 0 0 0 0 0 0 0 0 0 0 0 0 0 0 0 0
5 3 0 0 0 0 0 4 5 14 40 64 66 87 98 100 100 71 33 7 6 4 2 0 0 0 0 0 0 0 0 0 0 0 0 0 0 0 0 0 0 0 0 0 0
5 4 3 3 0 0 0 0 0 0 0 0 2 2 3 6 3 2 0 0 0 0 0 0 0 0 0 0 0 0 0 0 0 0 0 0 0 0 0 0 0 0 0 0 0
5 5 5 5 4 2 0 0 0 0 0 2 5 4 2 0 0 0 0 0 0 0 0 0 0 0 0 0 0 0 0 0 0 0 0 0 0 0 0 0 0 0 0 0 0
16 5 5 5 5 5 0 0 0 0 0 0 0 5 5 1 0 0 0 0 0 2 0 0 0 0 0 0 0 0 3 0 0 0 0 0 0 0 0 0 0 0 0 0 0
3 5 5 5 5 5 5 5 0 0 0 0 0 1 5 5 5 5 5 2 0 0 0 0 0 0 0 0 0 0 0 0 0 0 0 0 0 0 0 0 0 0 0 0 0

GFSSW_prec_cloud_042.txt.gz
Cloud_Cover
5 5 0 9 62 0 0 0 0 0 0 4 52 100 48 98 95 5 2 5 5 0 16 47 12 3 0 0 0 0 0 3 2 0 6 43 61 25 41 73 6 5 0 0 0
5 5 1 60 0 0 0 0 0 0 0 0 5 100 87 92 100 46 5 4 5 4 0 35 31 15 5 4 5 5 5 0 4 5 5 5 5 12 31 5 5 5 0 0 0
5 24 0 0 0 0 0 0 0 0 0 0 0 30 100 100 94 68 63 5 5 5 4 5 5 5 5 5 5 5 5 5 5 5 9 5 5 5 4 3 5 5 5 0 5
5 4 0 0 0 0 0 0 0 0 0 0 4 55 100 100 100 100 28 47 6 5 58 19 6 5 4 1 4 16 64 33 5 13 68 100 55 5 5 5 5 5 18 88 100
2 0 0 0 0 0 0 0 0 0 0 0 56 18 17 100 100 100 67 7 5 37 31 5 5 5 0 0 0 0 5 5 5 5 16 52 72 26 5 5 5 5 5 5 19
0 0 0 0 0 0 0 0 0 0 0 0 25 2 21 48 100 100 100 99 30 80 59 14 5 5 5 5 5 4 4 5 5 5 20 41 21 5 5 5 5 5 5 5 5
6 13 0 0 0 0 0 0 0 0 0 0 5 7 3 5 41 100 100 100 99 32 39 5 5 5 5 5 5 5 5 5 5 5 6 5 5 5 5 5 5 5 5 4 3
0 18 1 0 0 0 0 0 0 0 0 0 4 5 9 5 5 53 93 95 100 83 39 18 5 5 5 5 5 5 26 14 7 5 5 5 5 5 5 4 0 4 0 4 1
2 0 2 0 7 0 0 0 0 0 0 0 0 3 4 1 2 4 8 31 100 100 87 100 60 6 5 5 5 5 20 28 8 5 5 5 5 5 5 5 5 4 0 0 0
0 5 0 12 0 0 0 0 0 0 0 0 0 3 0 0 0 3 5 6 5 98 98 78 92 100 100 89 49 9 5 5 5 6 6 5 5 5 5 0 0 0 0 0 0
2 0 1 0 0 0 0 0 0 0 0 0 0 0 0 0 0 5 5 5 5 5 100 100 49 5 6 92 100 100 100 100 100 100 98 87 63 5 5 0 0 0 0 0 0
7 6 0 0 0 0 0 0 0 0 0 0 0 0 0 0 5 5 5 5 5 4 4 22 94 100 11 5 5 5 5 5 5 5 5 4 5 4 0 0 0 0 0 0 0
0 0 0 0 0 0 0 0 0 0 0 0 0 0 0 0 0 1 4 3 1 5 2 5 5 5 5 5 5 1 4 5 5 4 3 0 0 0 0 0 0 0 0 0 0
0 0 0 0 0 0 0 0 0 0 0 0 0 0 0 0 0 0 0 0 0 1 5 5 5 5 0 0 0 0 0 0 0 0 0 0 0 0 0 0 0 0 0 0 0
0 0 0 0 0 0 0 0 0 0 0 0 0 0 0 2 0 0 0 0 0 3 5 5 4 5 0 5 5 3 1 0 0 0 0 0 1 5 0 0 0 0 0 0 0
0 0 0 0 0 0 0 0 0 0 0 0 0 0 0 0 0 0 0 2 0 0 0 0 0 0 0 0 0 0 0 0 0 0 1 5 4 0 1 0 0 0 0 0 0
0 0 0 0 0 0 0 0 0 0 0 0 0 0 0 0 0 0 0 0 0 0 0 0 0 0 0 3 2 0 0 0 0 3 5 5 3 3 1 0 0 0 0 0 0
0 0 0 0 0 0 0 0 0 0 0 0 0 0 0 0 0 0 0 0 0 0 0 0 0 0 4 5 5 5 3 5 5 77 5 5 5 1 0 0 0 0 0 0 0
0 0 0 0 0 0 0 0 0 0 0 0 0 0 0 0 0 0 0 0 0 0 0 0 5 5 5 6 5 6 36 40 5 5 5 5 4 0 0 0 0 0 0 0 0
3 1 0 0 0 0 0 0 0 0 0 0 0 0 0 0 0 0 0 0 2 5 5 5 5 5 5 29 34 74 34 5 5 5 5 5 5 5 0 0 0 0 0 0 0
5 12 8 5 3 0 0 0 0 1 0 0 0 0 0 0 0 0 0 3 5 5 5 5 7 26 44 78 97 45 19 5 5 5 0 3 4 5 0 0 0 0 0 0 0
5 5 6 44 65 39 5 5 5 5 5 5 5 5 5 5 5 5 5 18 5 5 5 14 57 100 100 44 26 18 5 0 0 0 0 0 4 0 0 0 0 0 0 0 0
5 4 3 2 2 5 7 38 89 96 64 28 25 42 46 30 35 42 93 79 78 99 100 100 100 100 94 5 5 2 0 0 0 0 0 0 0 0 0 0 0 0 0 0 0
5 5 5 5 5 3 1 2 1 1 3 9 42 37 64 92 84 66 49 54 57 42 9 5 5 2 0 0 0 0 0 0 0 0 0 0 0 0 0 0 0 0 0 0 0
5 5 5 5 5 5 5 5 5 4 1 0 0 0 0 0 0 0 0 0 0 0 0 0 0 0 0 0 0 0 0 0 0 0 0 0 0 0 0 0 0 0 0 1 2
3 2 5 5 5 5 5 5 5 5 5 5 5 5 5 5 5 5 1 0 4 0 0 0 0 0 0 0 0 0 4 0 0 0 0 0 0 0 1 5 0 5 5 4 0
0 0 0 1 4 5 5 5 5 5 5 5 4 4 0 0 0 0 0 0 1 5 4 2 0 0 0 0 0 0 4 4 0 0 0 0 2 5 0 0 5 5 5 5 0

GFSSW_prec_cloud_045.txt.gz
Cloud_Cover
1 5 5 0 0 0 0 0 0 0 0 4 100 100 100 100 100 48 5 0 9 5 5 18 54 38 5 4 0 0 5 59 22 19 5 5 5 9 5 5 5 5 1 0 1
1 5 5 2 0 0 0 0 0 0 0 0 100 100 100 100 100 100 25 5 5 5 5 5 5 37 36 6 5 4 5 5 15 7 5 5 5 5 5 5 0 0 0 0 0
2 5 5 0 0 0 0 0 0 0 0 0 57 100 100 100 100 100 100 10 5 5 5 5 2 5 9 67 70 31 5 5 5 5 5 5 5 5 5 3 0 0 0 0 0
5 5 5 0 0 0 0 0 0 0 0 0 8 100 100 100 88 100 100 98 30 5 4 5 5 5 5 34 66 62 94 95 44 25 10 7 5 5 5 5 5 5 5 5 5
6 4 5 0 0 0 0 0 0 0 0 0 5 100 100 100 100 86 100 100 91 13 5 80 7 6 5 5 5 87 96 67 37 70 74 61 39 5 5 5 5 5 5 5 5
0 0 0 1 0 0 0 0 0 0 0 0 10 19 98 100 100 100 93 79 100 78 6 5 5 5 5 5 5 5 31 60 10 5 5 5 5 5 5 5 5 5 5 3 5
7 4 8 10 0 0 0 0 0 0 0 0 5 5 37 91 100 100 100 79 98 60 56 36 5 5 5 5 5 5 5 5 5 5 5 5 5 5 5 5 5 5 5 5 0
20 17 19 0 0 0 0 0 0 0 0 3 19 5 5 13 42 100 100 94 91 100 73 94 46 5 51 12 12 38 53 81 59 49 29 27 99 5 8 15 17 5 5 3 0
10 10 0 0 0 0 0 0 0 0 0 3 4 5 5 5 5 42 100 100 100 100 92 67 41 5 13 48 68 72 85 87 100 53 88 32 10 5 25 7 5 5 5 5 5
3 0 0 0 0 0 0 0 0 0 0 0 2 3 2 4 5 5 20 100 100 100 100 100 100 88 29 17 5 5 5 36 41 48 5 5 5 10 5 6 68 60 12 20 6
4 0 0 0 0 0 0 0 0 0 0 0 0 1 3 0 0 0 0 2 60 95 100 99 100 100 100 100 100 100 100 100 96 100 100 100 100 100 100 100 92 68 43 9 5
0 0 0 0 0 0 0 0 0 0 0 0 0 0 0 0 5 5 5 0 5 23 32 5 20 40 96 87 14 5 5 28 70 94 60 30 5 27 16 5 4 0 0 0 0
0 0 0 0 0 0 0 0 0 0 0 0 0 0 0 0 3 5 5 5 5 0 2 5 50 6 5 16 95 100 100 92 38 5 5 5 5 2 3 2 0 0 0 0 0
0 0 0 0 32 0 0 0 0 0 0 0 0 0 0 0 0 5 5 5 5 5 5 5 5 5 5 5 5 5 10 16 5 5 5 3 2 0 0 0 0 0 0 0 0
0 0 0 0 0 0 0 0 0 0 0 0 0 0 0 0 0 0 0 3 5 5 5 50 5 5 5 5 4 4 4 5 5 0 0 0 0 0 0 0 0 0 0 0 0
0 0 0 0 0 0 0 0 0 0 0 0 0 0 0 0 0 0 0 0 0 2 5 5 5 5 3 0 0 0 0 0 0 0 0 0 0 0 2 2 5 5 0 0 0
0 0 25 0 0 0 0 0 0 0 0 0 0 0 0 0 0 0 0 0 0 0 0 0 0 0 0 0 0 0 0 0 0 0 0 1 4 7 4 5 12 8 2 0 0
0 0 0 0 0 0 0 0 0 0 0 0 0 0 0 0 0 0 0 0 0 0 0 0 0 0 0 0 0 0 0 0 0 0 1 13 5 5 17 8 5 1 5 5 5
3 0 0 0 0 0 0 0 0 0 0 0 0 0 0 0 0 0 0 0 0 0 0 0 0 0 0 0 0 0 0 0 0 5 5 6 47 100 100 23 1 5 5 5 5
0 0 0 0 0 0 0 0 0 0 0 0 0 0 0 0 0 0 0 0 0 0 0 0 0 0 0 0 0 0 5 5 5 5 6 62 58 89 100 5 0 0 1 1 0
0 0 0 0 0 0 0 0 0 0 0 0 0 0 0 0 0 0 0 0 0 0 0 0 0 0 0 1 4 5 5 5 5 9 5 65 98 5 23 5 1 1 0 0 0
5 5 4 0 0 0 0 0 0 0 0 0 0 0 0 0 0 0 0 0 0 0 0 0 0 0 5 5 5 6 30 58 68 30 32 33 32 98 0 0 0 0 0 0 0
5 5 5 5 5 5 5 1 1 1 0 0 3 4 5 5 3 4 2 4 5 5 5 5 5 5 6 5 19 68 95 99 78 5 87 0 37 0 0 0 0 0 0 0 0
4 5 5 2 5 5 5 22 37 28 58 64 42 26 19 9 12 5 5 7 6 6 5 8 42 25 40 5 19 74 57 10 3 0 0 0 0 0 0 2 0 0 0 0 0
5 5 5 0 0 1 0 1 5 5 4 5 5 5 18 36 27 26 19 29 47 25 14 8 4 4 1 0 1 0 4 2 5 4 1 0 0 0 0 0 0 0 0 5 5
4 5 5 5 5 4 0 5 5 1 3 3 5 5 5 5 5 5 5 5 5 5 5 5 5 5 5 5 1 4 5 5 5 5 0 0 0 0 0 0 0 0 0 0 0
5 1 1 1 5 5 4 5 5 5 5 9 5 5 5 5 5 5 5 5 5 5 0 1 2 0 1 2 3 2 4 18 2 0 0 0 0 0 0 0 0 0 0 0 0

GFSSW_prec_cloud_048.txt.gz
Cloud_Cover
3 0 0 0 0 0 0 0 0 0 0 5 5 5 99 94 98 100 63 93 100 98 97 93 10 5 9 4 21 41 5 94 39 5 5 5 5 5 5 3 0 0 0 4 5
4 0 1 0 0 0 0 0 0 0 0 0 3 5 96 72 93 100 100 78 100 87 56 70 7 5 7 17 4 0 4 27 6 5 5 5 5 5 5 5 0 0 0 0 0
35 1 5 5 0 0 0 0 0 0 0 0 0 5 91 99 86 100 100 96 49 66 46 45 18 5 5 5 34 7 17 5 5 3 2 5 6 5 9 4 1 0 0 0 4
0 4 5 5 0 0 0 0 0 0 0 0 0 0 72 100 98 100 100 100 39 33 42 20 6 6 5 5 5 51 78 14 5 5 5 5 5 5 5 5 5 5 5 4 0
9 2 5 3 0 0 0 0 0 0 0 0 0 0 70 100 100 100 100 100 100 46 12 5 5 5 5 5 5 7 6 73 46 63 47 50 61 32 5 6 5 5 2 0 0
0 0 4 6 5 0 0 0 0 0 0 0 0 2 24 100 100 100 100 100 100 100 38 5 16 6 5 5 5 5 5 5 6 11 40 26 48 51 5 5 4 5 2 0 2
3 12 15 15 2 0 0 0 0 0 0 0 0 6 22 100 100 100 100 100 100 100 100 70 21 51 9 5 5 5 5 5 5 5 5 5 5 22 5 5 5 5 4 5 5
95 24 27 15 0 0 0 0 0 0 0 0 5 7 5 62 100 100 100 100 100 100 100 100 100 58 54 7 5 5 5 5 8 5 5 5 9 5 5 5 5 5 5 5 5
96 24 27 0 0 0 0 0 0 0 0 4 6 5 5 7 100 100 100 100 100 96 100 100 100 100 100 21 12 5 5 50 70 5 69 6 5 8 5 5 5 5 5 5 5
46 10 0 0 0 0 0 0 0 0 0 4 4 2 4 5 15 100 100 100 100 99 100 90 100 100 89 70 92 57 10 41 89 100 5 72 7 77 5 5 5 5 10 45 62
0 0 0 0 0 0 0 0 0 0 0 0 0 0 4 5 5 64 60 94 100 100 100 100 100 100 100 87 47 52 56 16 5 98 62 6 58 21 87 39 100 100 100 100 99
1 0 0 0 0 1 0 0 0 0 0 0 0 0 0 5 5 5 39 80 95 100 100 100 100 100 100 100 100 100 100 100 94 100 100 93 97 98 99 66 50 12 5 5 5
5 0 0 0 0 0 0 0 0 0 0 0 0 0 0 3 5 30 32 37 66 48 67 97 100 95 100 100 99 44 71 100 98 83 48 25 43 26 50 39 5 5 5 5 0
0 0 0 0 8 0 0 0 0 0 0 0 0 0 0 0 5 5 50 21 5 5 5 7 38 3 4 6 23 12 70 5 5 5 17 22 26 38 23 1 0 0 3 0 0
0 0 0 0 0 0 0 0 0 0 0 0 0 0 0 0 0 5 5 5 5 5 1 5 5 1 3 5 2 5 5 5 5 5 5 4 5 0 0 0 0 0 4 0 0
0 0 0 0 0 0 0 0 0 0 0 0 0 0 0 0 0 0 2 5 5 5 5 5 7 5 5 5 5 5 5 5 5 5 2 2 0 0 2 1 0 0 0 0 0
0 0 0 0 0 0 0 0 0 0 0 0 0 0 0 0 0 0 0 0 0 2 3 5 5 5 5 5 5 5 5 5 5 4 0 0 0 0 0 0 0 4 5 5 5
0 0 0 0 0 0 0 0 0 0 0 0 0 0 0 0 0 0 0 0 0 0 0 0 2 2 0 0 5 5 5 4 1 0 0 0 0 0 0 0 0 0 0 5 49
3 0 0 0 0 0 0 0 0 0 0 0 0 0 0 0 0 0 0 0 0 0 0 2 2 0 2 0 0 0 0 0 0 0 0 0 0 0 0 3 5 3 5 6 34
0 0 0 0 0 0 0 0 0 0 0 0 0 0 0 0 0 0 0 0 0 0 0 0 0 0 0 0 0 0 0 0 0 0 0 0 0 0 0 5 18 42 90 100 100
0 0 0 0 0 0 0 0 0 0 0 0 0 0 0 0 0 0 0 0 0 0 0 0 0 0 0 0 0 0 0 0 0 0 0 1 9 37 69 16 3 4 5 87 86
5 4 0 0 0 0 0 0 0 0 0 0 0 0 0 0 0 0 0 0 0 0 0 0 0 0 0 0 0 0 0 0 0 3 10 8 66 99 97 61 5 0 1 0 0
10 27 12 12 3 0 0 0 0 0 0 0 0 0 0 0 0 0 0 0 0 0 0 0 0 0 0 0 0 1 5 6 6 5 100 27 92 5 0 0 0 0 0 3 7
4 5 5 7 46 92 74 45 19 2 0 0 0 0 0 0 0 0 0 0 0 0 2 2 4 3 4 5 82 100 99 100 97 27 13 10 1 2 4 2 1 0 3 2 0
1 5 4 5 5 4 5 5 12 19 48 62 66 68 72 68 76 85 79 82 86 94 100 97 100 100 94 52 13 15 12 5 0 4 2 7 5 46 3 4 2 0 0 0 0
5 5 2 1 5 0 1 0 0 0 0 0 0 0 0 0 0 0 0 0 3 2 5 1 2 0 0 1 0 0 5 5 5 5 0 0 3 0 0 0 0 0 0 0 0
5 5 5 5 5 4 1 4 4 1 0 0 0 0 0 0 0 1 0 0 0 2 0 0 0 0 1 4 4 5 5 4 0 0 0 0 1 0 1 0 0 0 0 0 0

GFSSW_prec_cloud_051.txt.gz
Cloud_Cover
0 0 0 0 0 0 0 0 0 0 0 0 5 5 5 16 78 100 80 35 97 98 100 75 8 5 5 5 1 5 5 37 73 5 5 24 5 5 5 0 0 0 5 5 0
0 2 0 0 0 0 0 0 0 0 0 0 5 5 5 8 68 100 100 29 63 98 98 93 81 32 5 5 2 0 5 39 20 45 68 79 57 18 5 0 1 1 3 5 0
5 1 0 0 0 0 0 0 0 0 0 0 5 5 5 62 92 100 100 100 98 74 13 100 100 47 22 6 5 10 5 5 56 43 83 7 6 6 3 0 0 0 1 0 0
4 4 4 4 0 0 0 0 0 0 0 0 0 4 10 88 100 100 100 100 100 98 100 97 88 62 17 12 5 37 6 5 5 5 6 6 1 9 6 5 5 2 3 5 0
1 3 5 5 1 0 0 0 0 0 0 0 0 4 76 87 98 100 100 100 100 100 98 100 69 72 53 39 12 83 5 11 5 5 5 6 8 5 5 5 5 5 5 5 5
5 0 2 0 0 0 0 0 0 0 0 0 0 3 53 82 98 100 100 100 100 100 100 77 18 5 64 22 52 100 10 36 5 5 5 6 46 11 5 5 5 5 4 5 5
0 0 6 0 0 0 0 0 0 0 0 0 0 9 29 63 83 100 100 100 100 100 100 100 34 5 6 71 98 100 94 5 5 5 5 5 5 5 5 5 5 5 5 5 26
1 12 20 0 0 0 0 0 0 0 0 0 73 72 5 5 71 100 100 100 100 100 100 100 100 82 100 16 24 76 55 40 5 5 7 5 6 5 5 5 5 5 5 5 5
100 100 34 20 0 0 0 0 0 0 0 59 85 25 2 14 9 100 100 100 100 100 100 100 100 100 100 77 77 34 95 64 55 36 5 5 5 7 5 5 5 5 5 5 5
100 100 8 0 0 0 0 0 0 0 0 100 92 16 2 8 5 36 100 100 100 100 100 100 100 100 100 100 100 90 83 82 92 93 58 5 5 25 5 5 5 5 5 5 5
9 0 0 0 0 0 0 0 0 0 5 5 5 5 4 5 5 5 99 100 100 100 100 100 100 100 100 100 100 100 100 100 97 100 100 93 97 6 55 8 12 100 93 100 100
0 0 0 0 0 0 0 0 0 0 5 5 0 0 1 4 5 5 5 100 100 100 100 100 100 100 100 100 100 93 100 100 100 100 100 43 100 100 100 100 98 79 50 5 5
3 4 5 5 2 0 0 0 0 0 2 0 0 0 0 5 5 5 5 87 100 100 100 100 100 100 100 100 100 80 100 98 30 93 100 100 100 100 100 99 92 88 88 100 100
5 5 5 1 0 0 0 0 0 0 0 0 0 0 0 1 5 28 5 8 50 100 100 100 100 100 100 92 100 100 100 100 96 60 34 25 88 49 50 71 34 21 6 5 5
5 5 0 0 0 0 0 0 0 0 0 0 0 0 0 0 0 5 5 5 5 5 5 57 14 5 5 26 42 94 80 13 5 5 5 0 3 100 5 5 0 5 5 5 3
0 0 0 0 0 0 0 0 0 0 0 0 0 0 0 0 0 0 0 2 5 5 5 5 31 6 9 6 7 16 6 4 1 0 0 3 0 17 46 10 20 5 5 0 0
4 5 5 5 5 5 5 5 2 0 0 0 0 0 0 0 0 0 0 0 5 5 5 5 5 5 5 5 5 2 3 0 2 3 5 6 5 5 7 8 5 0 0 0 0
0 1 5 10 5 5 5 0 0 0 0 0 0 0 0 0 0 0 0 0 1 5 5 5 7 5 5 5 5 5 3 1 5 16 5 5 2 2 0 0 0 0 0 0 0
3 0 0 0 0 0 0 0 0 0 0 0 0 0 0 0 0 0 0 0 0 2 0 5 5 5 2 4 4 5 5 5 5 4 1 0 0 0 0 0 0 0 0 0 4
3 0 0 0 0 0 0 0 0 0 0 0 0 0 0 0 0 0 0 0 0 0 0 0 0 0 0 0 1 3 0 0 0 0 0 0 0 0 0 0 0 0 0 4 27
0 2 4 0 0 0 0 0 0 0 0 0 0 0 0 0 0 0 0 0 0 0 0 0 0 0 0 0 0 0 0 0 0 0 0 0 0 0 0 0 0 2 39 82 36
0 0 0 0 0 0 0 0 0 0 0 0 0 0 0 0 0 0 0 0 0 0 0 0 0 0 0 0 0 0 0 0 0 0 0 0 0 0 0 4 5 8 9 5 5
5 5 2 0 0 0 0 0 0 0 0 0 0 0 0 0 0 0 0 0 0 0 0 0 0 0 0 0 0 0 0 0 0 0 35 6 84 5 5 2 1 5 12 34 3
5 14 46 36 17 1 0 0 0 0 0 0 0 0 0 0 0 0 0 0 0 0 0 0 0 0 0 0 2 18 18 43 43 53 14 58 5 5 0 0 0 0 0 0 0
5 5 5 5 7 20 69 55 35 20 4 3 0 1 0 0 0 1 0 0 2 3 3 4 28 69 91 95 67 97 87 36 7 2 0 1 1 1 2 0 0 0 0 0 0
60 5 5 5 5 5 5 5 5 5 5 5 7 6 24 26 20 10 10 5 5 5 5 3 5 5 5 2 3 3 5 2 1 0 0 0 0 0 0 0 0 0 0 0 5
95 77 77 17 5 5 5 5 5 5 0 2 2 4 3 4 2 3 2 0 4 0 0 0 0 0 1 0 0 1 2 0 0 0 0 0 0 1 4 4 2 3 4 1 4

GFSSW_prec_cloud_054.txt.gz
Cloud_Cover
0 0 0 1 0 0 0 0 0 0 0 0 0 0 5 68 56 100 100 100 93 69 69 76 78 22 5 2 5 5 5 9 5 0 2 0 0 0 0 0 0 0 2 0 1
0 0 2 0 0 0 0 0 0 0 0 0 0 0 4 66 57 100 100 100 100 96 77 89 76 32 7 5 2 5 3 20 91 12 5 5 3 3 0 0 5 5 5 5 2
40 0 5 1 0 0 0 0 0 0 0 0 0 0 4 68 100 58 100 100 100 100 57 97 54 56 89 5 4 0 3 0 7 62 6 5 42 5 5 5 5 5 0 0 4
5 8 5 0 0 0 0 0 0 0 0 0 0 0 0 25 95 36 96 92 100 100 68 83 76 84 44 21 5 4 4 1 0 1 2 0 5 100 13 3 0 0 0 0 5
67 4 5 0 0 0 0 0 0 0 0 0 0 0 0 8 87 57 99 100 100 100 70 100 78 95 37 20 5 5 5 5 5 5 5 5 5 5 5 4 2 4 3 0 0
5 5 0 0 0 0 0 0 0 0 0 0 0 0 0 6 51 100 45 100 100 100 100 100 75 99 5 6 5 14 5 5 5 5 5 7 5 5 5 5 5 5 5 5 4
5 5 0 0 0 0 0 0 0 0 0 0 0 0 0 0 5 31 86 100 100 100 100 100 100 74 5 5 13 62 38 5 5 19 42 37 6 5 5 5 5 5 5 5 5
0 0 0 0 0 0 0 0 0 0 0 0 0 1 0 30 0 11 73 100 100 100 100 100 100 61 39 5 5 21 5 5 5 6 25 5 5 5 5 5 5 5 5 5 5
100 66 75 27 0 0 0 0 0 0 0 0 2 4 4 26 5 6 42 100 100 100 100 100 100 100 100 100 74 30 95 16 5 5 21 5 6 5 5 5 5 5 5 5 5
100 100 100 37 0 0 0 0 0 0 0 3 5 4 17 55 74 82 59 100 100 100 100 100 100 100 100 100 100 100 97 98 97 78 83 8 5 5 5 5 5 5 5 5 5
100 100 56 4 4 0 0 0 0 0 0 0 2 44 86 65 54 95 45 100 100 100 100 100 100 100 100 100 100 100 100 100 100 100 100 57 96 73 98 100 37 43 53 12 70
2 5 7 48 8 0 0 0 0 0 2 0 5 99 71 76 5 14 70 100 100 100 100 100 100 100 100 100 100 100 100 100 100 100 100 100 100 100 100 100 81 100 98 100 100
19 4 0 0 0 0 0 0 0 0 4 5 20 58 67 5 5 5 5 89 100 100 100 100 100 100 100 100 100 100 100 100 100 100 100 100 100 100 100 100 100 100 100 83 92
2 0 1 2 0 0 1 0 0 2 5 52 6 5 1 1 3 5 5 22 83 95 100 100 100 100 100 100 100 100 100 100 100 85 98 96 98 100 100 83 79 49 84 38 5
5 5 2 4 18 7 0 0 0 0 5 4 2 0 0 0 0 0 5 5 5 7 35 100 100 100 100 100 100 100 66 5 10 84 92 31 18 100 99 12 5 5 5 5 5
5 5 5 4 2 0 0 0 0 0 0 0 0 0 0 0 0 0 2 5 5 5 6 45 100 100 100 92 47 73 92 92 46 6 37 16 5 87 100 56 5 5 5 5 5
0 0 0 0 0 0 0 0 0 0 0 0 0 0 0 0 0 0 0 4 5 5 5 5 45 88 100 100 99 24 5 5 23 26 5 8 29 61 27 5 5 5 5 5 2
0 5 5 0 0 1 3 1 0 0 0 0 0 0 0 0 0 0 0 0 0 5 5 26 78 53 59 50 70 62 46 12 35 59 50 10 5 31 23 5 5 5 5 2 0
5 5 5 38 94 99 100 98 24 5 1 0 0 0 0 0 0 0 0 0 0 0 2 5 16 17 36 20 40 12 5 5 5 5 42 28 5 5 4 4 5 3 0 0 0
5 5 5 5 18 70 43 2 1 0 0 0 0 0 0 0 0 0 0 0 0 1 1 5 5 5 5 5 7 12 5 5 5 4 2 0 0 0 0 0 0 0 0 0 0
6 5 5 5 10 5 2 0 0 0 0 0 4 2 0 0 0 0 0 0 0 0 0 0 2 5 5 5 4 1 2 0 0 0 0 0 0 0 0 0 0 0 0 0 1
5 5 5 5 1 0 0 0 0 0 0 2 3 0 0 0 0 0 0 0 0 0 0 0 0 0 0 0 0 0 0 0 0 0 0 0 0 0 0 0 0 2 5 5 5
5 3 4 5 5 1 5 0 0 0 0 0 0 0 0 0 2 0 0 0 0 0 0 0 0 0 0 0 0 0 0 0 0 0 0 0 0 0 0 0 4 3 0 0 0
34 14 5 5 1 0 0 0 0 0 0 0 0 0 0 0 0 0 0 0 0 0 0 0 0 0 0 0 0 0 0 0 1 4 4 64 5 5 0 0 0 0 0 0 0
5 5 12 58 15 14 4 0 0 0 0 0 0 0 0 0 0 0 0 0 0 0 0 0 0 0 0 1 4 31 33 5 5 5 3 5 2 0 0 0 0 0 0 0 0
9 5 5 5 5 5 18 71 59 50 22 8 4 5 1 3 5 7 27 43 42 57 93 85 97 58 39 38 41 30 5 5 1 0 0 0 0 0 0 0 0 0 0 0 0
95 38 6 5 5 5 5 5 5 5 5 5 11 18 59 60 65 66 51 34 24 20 8 5 5 5 5 5 0 0 0 0 0 0 0 1 2 5 5 2 0 1 2 5 0

GFSSW_prec_cloud_060.txt.gz
Cloud_Cover
7 0 1 1 0 0 0 0 0 0 0 0 0 0 0 0 0 3 5 53 87 82 87 83 33 80 9 61 5 5 21 5 5 5 5 5 5 9 9 49 44 5 5 5 5
0 7 0 0 0 0 0 0 0 0 0 0 0 0 0 0 0 5 5 5 99 100 88 98 88 94 53 57 41 5 5 12 10 5 5 5 1 5 5 4 4 5 5 0 0
0 0 1 1 0 0 0 0 0 0 0 0 0 0 0 0 0 5 5 5 29 90 100 100 100 99 49 30 70 5 5 0 5 5 4 5 5 3 2 2 4 4 1 4 4
0 3 1 3 0 0 0 0 0 0 0 0 0 0 0 0 0 0 3 5 5 28 100 100 100 100 100 33 18 5 5 2 1 5 3 5 5 5 5 5 5 4 3 5 5
0 0 0 5 0 2 1 7 1 0 0 0 0 0 0 0 0 0 0 5 5 5 100 100 100 100 100 100 77 5 8 32 9 5 0 0 4 5 4 5 5 5 5 4 4
0 36 3 5 7 5 15 13 0 0 0 0 0 0 0 0 0 0 0 0 5 13 66 100 100 100 100 100 97 8 6 76 78 52 58 4 1 0 0 0 0 0 0 0 5
0 48 6 5 13 16 14 11 8 3 0 0 0 0 0 0 0 0 0 0 5 5 43 100 100 100 100 100 100 27 9 7 69 77 100 33 5 3 2 0 0 4 5 5 3
63 0 5 5 10 13 13 9 13 10 0 0 0 0 0 0 0 0 0 0 2 7 31 96 100 100 100 100 100 100 65 28 5 5 60 97 75 5 5 5 5 5 5 5 5
100 66 5 5 26 45 96 52 0 1 0 8 0 0 0 0 0 0 0 0 0 10 54 100 74 100 100 100 100 100 100 100 7 5 5 5 10 5 21 12 7 5 5 5 5
100 100 100 100 100 100 46 0 0 1 0 0 0 0 0 0 0 0 0 0 0 3 82 100 82 100 100 100 100 100 100 100 100 16 5 28 66 5 5 5 5 5 5 5 5
100 100 100 100 100 74 11 0 0 0 0 0 0 0 1 2 4 1 0 0 0 2 25 75 100 100 100 100 100 100 100 100 87 59 70 97 100 5 5 5 5 5 5 5 45
100 100 100 100 94 0 0 0 0 0 18 0 4 3 1 0 38 2 0 0 0 0 2 22 100 100 100 100 100 100 100 100 100 75 100 100 100 100 90 76 67 10 16 6 5
66 4 30 41 0 7 0 0 5 4 61 4 1 5 3 1 55 5 0 0 6 28 5 5 100 100 100 100 100 100 100 100 100 100 100 100 100 100 66 20 62 62 50 44 97
7 5 4 2 2 13 72 99 38 100 56 3 5 33 4 2 25 21 21 31 97 59 38 5 89 100 100 100 100 100 100 100 100 100 100 100 100 100 100 100 100 100 100 100 100
2 69 100 100 100 100 100 100 100 100 50 12 26 53 8 9 80 20 5 90 100 83 45 5 14 100 100 100 100 100 100 100 100 99 100 100 100 100 100 100 100 100 100 100 100
1 13 100 100 100 100 100 100 100 98 48 5 91 64 99 99 98 100 95 84 93 99 96 56 67 81 99 100 100 100 100 100 100 100 98 100 100 100 100 100 100 100 100 100 100
4 100 99 100 100 69 78 90 89 88 51 72 100 100 100 77 93 8 56 90 58 4 5 22 51 48 83 97 100 98 100 100 100 100 100 100 100 100 100 100 100 100 100 100 100
0 10 100 22 6 5 98 100 95 5 3 99 100 100 100 100 25 5 4 2 0 0 0 5 13 35 13 13 62 69 100 80 87 100 100 100 100 100 100 100 100 100 100 100 100
3 0 0 0 0 5 71 13 4 3 64 100 95 21 1 1 1 0 0 0 0 0 0 0 0 0 5 5 7 50 46 22 5 42 100 100 100 99 100 100 100 100 100 100 99
100 33 5 1 1 1 3 0 0 24 94 1 0 0 0 5 5 3 0 1 0 0 0 0 0 0 0 3 5 5 5 5 5 5 5 50 48 69 92 92 97 88 84 34 6
100 100 99 95 98 72 47 10 4 5 5 1 0 8 59 68 6 5 5 5 3 0 0 0 0 0 0 0 1 3 5 5 3 1 0 5 5 5 2 1 1 1 1 0 0
96 100 100 100 100 100 100 100 100 98 87 45 55 100 100 100 46 5 5 2 0 0 0 0 0 0 0 0 0 0 0 0 0 0 0 0 0 0 0 0 0 0 0 0 0
9 68 100 100 100 100 100 100 100 100 100 100 100 100 100 98 47 5 5 0 0 0 0 0 0 0 0 0 0 0 0 0 0 0 0 0 0 0 0 0 0 0 0 0 0
5 5 15 65 99 100 100 100 100 100 100 96 96 100 91 34 5 5 0 0 0 0 0 1 0 0 0 0 0 0 0 0 0 0 0 0 0 0 0 0 0 0 0 0 0
27 5 5 5 7 27 24 40 79 92 89 42 24 5 6 5 5 5 4 4 3 5 1 0 0 0 0 0 0 0 0 0 0 0 0 0 3 3 0 0 0 0 0 0 0
37 67 54 12 5 39 7 5 5 5 4 5 5 5 5 5 5 5 5 5 4 0 0 0 0 0 0 0 0 0 0 0 0 2 5 0 2 3 0 0 0 0 5 5 5
48 14 38 73 62 30 10 5 5 5 5 5 4 5 5 0 1 0 0 0 0 0 0 0 0 0 0 1 1 5 5 5 5 4 0 0 0 0 3 5 5 5 5 5 5

GFSSW_prec_cloud_063.txt.gz
Cloud_Cover
2 8 4 0 1 0 0 0 7 4 0 0 0 0 0 0 0 0 5 5 5 5 78 45 60 88 97 31 50 13 11 16 9 5 83 67 46 50 11 6 5 5 5 5 4
0 0 5 3 5 0 0 0 0 0 0 0 0 0 0 0 0 0 2 2 5 5 5 5 46 75 93 91 59 66 14 5 4 5 5 5 6 53 51 7 5 5 5 4 5
0 0 3 9 0 0 0 0 0 0 0 0 0 0 0 0 0 0 0 0 5 5 5 5 54 91 100 54 73 31 27 25 5 4 16 25 56 6 11 5 5 5 5 5 1
37 0 0 1 0 0 0 0 6 2 2 4 0 0 0 0 0 0 0 0 2 5 5 5 40 95 100 98 54 61 6 28 5 5 1 5 5 44 4 5 8 5 4 5 5
33 0 0 0 1 58 6 15 6 8 5 2 0 0 0 0 0 0 0 0 0 5 5 41 82 100 100 100 79 30 51 44 30 5 0 0 0 3 3 3 4 4 5 5 5
100 0 36 2 1 15 10 6 32 1 19 0 0 0 0 0 0 0 0 0 0 0 5 55 61 100 100 100 100 100 80 90 100 71 5 5 4 0 0 0 0 0 0 2 2
100 2 2 2 5 9 8 4 11 6 5 0 3 3 0 0 0 0 0 0 0 0 5 47 81 100 100 100 100 100 100 100 98 74 65 8 7 5 5 5 5 4 4 4 3
3 37 0 4 5 10 19 25 46 5 8 0 0 0 0 0 0 0 0 0 0 0 2 21 100 100 100 100 100 95 96 100 100 100 100 90 62 5 5 5 5 5 5 5 5
20 73 32 5 3 32 69 96 14 1 8 0 4 0 0 0 0 0 0 0 1 17 0 5 79 77 100 100 100 85 82 100 100 92 76 100 100 5 5 5 5 4 2 2 1
100 100 100 100 100 100 20 0 3 1 0 0 0 0 0 0 0 0 0 0 0 1 0 3 5 33 100 100 100 100 100 100 100 100 100 100 100 100 65 32 5 5 5 5 5
64 100 100 100 100 100 20 4 2 2 0 0 0 0 0 0 0 2 0 0 0 0 0 0 3 72 98 100 100 100 100 100 99 54 100 100 100 8 7 28 5 5 73 44 7
79 100 98 100 100 99 9 0 3 0 0 0 3 0 0 0 0 70 0 0 0 0 2 5 0 5 91 100 100 100 100 99 94 84 49 99 100 100 21 50 75 62 94 93 85
100 100 82 100 100 76 2 0 0 0 1 7 10 3 0 0 20 79 0 0 0 0 0 4 91 10 18 90 81 100 100 100 100 75 77 96 100 100 39 5 5 5 5 21 85
100 100 13 97 82 3 3 55 96 47 96 98 6 92 4 5 71 32 0 3 0 0 0 3 5 5 5 21 84 100 100 100 100 100 100 100 98 100 75 41 26 17 34 65 98
90 98 100 99 100 100 56 89 100 100 100 100 97 21 27 5 62 88 0 5 40 7 4 4 5 5 8 19 53 100 100 100 100 100 100 100 66 100 100 98 100 95 71 59 85
5 65 97 100 87 70 100 100 100 100 100 100 84 90 6 5 100 42 92 90 87 41 74 5 53 49 93 72 6 59 73 100 100 100 100 100 100 100 100 100 100 100 100 100 100
61 100 87 100 98 100 100 100 100 100 99 100 44 64 71 100 98 71 23 63 13 41 4 5 48 77 5 5 5 10 83 99 100 100 100 100 100 100 100 100 91 78 100 100 100
0 100 38 8 94 100 100 100 100 100 100 81 100 70 100 100 83 100 33 49 40 5 5 5 1 0 0 0 4 5 22 39 81 100 100 100 100 100 100 100 100 100 100 100 100
0 2 2 5 10 82 100 82 100 81 94 100 100 100 96 100 100 100 100 5 2 0 0 4 0 0 0 0 5 5 5 5 57 99 100 100 44 20 59 95 77 62 50 52 72
4 0 4 0 16 90 7 64 39 38 100 100 88 100 100 100 100 100 88 2 0 0 0 0 0 0 0 0 4 5 5 5 5 10 27 67 75 42 60 22 5 5 5 4 4
11 98 8 5 6 5 5 5 14 94 100 100 100 100 100 100 11 23 2 2 5 5 0 0 0 0 0 0 0 1 0 0 0 0 2 6 5 5 1 0 0 0 0 0 0
100 13 100 98 19 9 17 99 100 100 79 100 72 62 94 100 80 5 12 40 25 5 5 5 5 0 0 0 0 0 0 0 0 0 0 0 0 0 0 0 0 0 0 0 0
40 100 87 100 100 100 100 100 100 100 100 79 73 5 5 21 80 97 78 58 27 5 5 3 0 0 0 0 0 0 0 0 1 0 0 0 0 0 0 0 0 0 0 0 0
87 37 100 100 100 100 100 100 100 100 100 100 100 100 97 100 100 100 65 32 5 5 4 0 0 0 0 3 3 2 0 0 0 0 0 0 0 0 0 0 0 0 2 5 5
92 95 37 99 100 100 100 100 100 100 100 100 100 100 100 100 97 87 63 13 5 5 0 0 0 3 4 0 0 0 0 0 0 0 0 0 0 0 4 4 5 5 5 2 3
60 80 71 22 59 95 98 83 92 99 100 100 100 100 99 82 61 53 12 5 5 0 5 5 3 0 1 3 5 5 0 0 0 0 0 5 5 5 5 5 5 5 21 13 5
100 98 90 62 57 12 26 36 29 38 44 68 72 81 74 66 64 57 31 5 5 5 5 5 5 5 5 0 0 0 2 4 5 5 5 5 5 6 21 70 97 92 58 46 5

GFSSW_prec_cloud_069.txt.gz
Cloud_Cover
86 53 5 5 5 8 0 5 5 5 5 100 94 6 0 36 74 5 7 10 2 3 5 100 100 100 100 100 83 46 32 12 21 5 5 7 48 99 98 48 30 29 17 75 56
73 88 11 4 4 1 2 2 68 4 3 3 6 66 0 0 14 26 16 1 0 2 0 10 100 100 100 100 100 84 69 70 97 19 5 5 6 52 94 100 82 49 80 74 100
45 5 5 5 5 5 3 0 0 13 5 2 5 5 5 0 0 5 0 0 0 1 1 5 38 100 100 100 100 100 77 100 42 5 5 5 15 38 33 55 55 76 56 37 57
5 5 1 0 0 0 0 0 4 2 4 7 0 0 0 0 0 0 0 0 0 0 1 0 5 42 98 100 100 100 100 84 51 5 5 5 5 5 5 22 72 98 62 8 5
0 0 0 0 1 0 13 1 0 3 11 6 0 0 0 0 0 0 0 0 0 0 0 0 0 5 33 99 100 100 100 96 89 43 8 5 5 5 6 5 38 70 29 19 5
0 0 0 0 0 0 0 0 2 39 12 56 0 0 0 0 0 0 0 0 0 0 0 0 0 4 6 44 100 100 100 100 100 68 8 5 5 5 5 5 5 25 5 5 5
0 0 0 1 0 0 0 3 6 9 5 52 0 0 0 0 0 0 0 0 0 0 0 0 0 2 5 36 92 91 100 100 100 100 100 77 25 6 5 5 5 5 5 4 2
0 0 0 0 0 0 1 0 0 3 9 40 0 0 0 0 0 0 0 0 0 0 0 0 0 0 1 5 90 96 100 99 100 100 100 100 100 100 81 19 5 5 5 5 5
0 1 0 0 0 0 0 2 5 14 10 0 0 1 0 0 0 0 0 0 0 0 0 0 0 0 0 1 66 58 95 100 96 100 100 100 100 100 100 100 100 86 80 75 63
0 0 2 86 100 100 40 0 0 0 0 0 0 0 0 0 0 0 0 0 0 0 0 0 0 0 0 0 1 89 100 100 100 100 100 100 100 100 100 99 94 100 100 100 100
0 0 22 100 90 98 9 0 0 4 0 0 1 1 0 0 0 0 4 0 0 0 0 0 0 0 0 0 14 100 99 86 100 100 100 100 100 100 100 100 100 100 100 100 100
1 0 45 99 100 78 6 0 0 0 0 0 0 0 0 0 0 0 40 0 0 2 5 0 0 2 2 24 3 5 26 74 82 100 100 100 100 100 100 80 58 94 89 91 100
29 6 98 12 91 2 0 2 10 2 1 0 1 0 0 0 16 35 37 9 1 2 2 0 2 2 15 1 0 0 20 69 43 99 100 100 100 100 100 76 70 100 100 99 100
31 2 96 0 42 28 2 4 13 93 98 3 53 20 0 96 1 4 32 1 2 5 0 4 10 0 0 0 0 7 21 96 83 90 100 100 100 100 100 75 100 100 100 100 100
5 2 0 41 7 100 41 36 33 100 100 85 100 100 100 56 2 1 4 32 16 7 0 0 0 0 0 0 4 41 10 77 93 90 69 100 100 100 100 100 100 98 100 100 100
62 5 0 0 76 100 87 99 100 100 88 100 91 100 100 100 100 88 26 10 36 56 37 2 0 0 64 88 24 5 95 100 93 15 7 7 82 100 100 100 100 100 100 100 100
99 28 0 0 5 100 88 52 100 100 100 88 100 100 100 100 100 100 76 100 78 95 35 4 3 81 100 100 100 99 98 88 66 5 2 5 12 5 60 86 100 100 100 100 100
100 65 2 0 4 30 96 100 100 100 100 100 100 100 100 100 100 100 100 100 100 98 86 95 15 7 100 100 100 100 100 100 11 1 2 5 5 5 5 5 5 47 97 100 100
100 98 11 0 1 48 13 100 100 100 100 100 100 100 100 100 87 95 100 100 100 100 100 100 48 5 100 100 100 100 100 100 73 3 0 0 4 4 5 5 5 5 5 22 14
100 100 30 0 0 13 37 100 100 100 100 100 100 100 100 100 95 100 100 100 100 100 100 82 56 16 5 98 100 100 100 90 29 1 0 0 0 0 0 0 2 3 1 2 4
100 100 99 5 0 5 5 100 88 55 100 100 100 100 100 100 100 100 100 100 100 100 42 5 5 0 5 6 5 15 30 4 0 0 0 0 0 0 0 0 0 0 0 0 5
100 100 100 5 0 4 6 100 42 6 87 100 100 86 100 100 100 100 100 100 62 11 14 72 54 100 96 53 48 23 5 5 5 2 4 0 0 0 0 0 0 2 0 0 4
100 100 100 45 30 0 2 6 5 14 99 98 100 98 99 100 100 96 100 100 82 5 73 100 99 100 100 100 100 100 96 68 20 5 5 4 0 0 0 0 0 0 0 0 0
100 100 94 100 24 29 39 24 27 99 93 99 100 85 5 100 100 100 100 100 96 88 100 100 100 100 87 69 18 8 5 5 5 5 0 1 0 0 0 0 0 0 0 0 0
100 100 91 100 50 79 6 65 27 70 66 100 100 100 100 97 100 100 100 100 100 100 100 89 84 59 62 70 61 35 8 5 5 5 5 1 5 0 0 0 0 0 0 0 0
100 100 100 61 100 52 66 100 91 13 93 6 70 100 100 100 100 100 100 100 100 100 100 100 100 100 100 50 25 47 5 5 5 5 5 2 5 0 0 0 0 0 0 0 0
100 100 100 6 100 100 58 100 100 100 100 100 98 96 100 100 100 100 100 100 100 100 100 100 100 97 95 50 70 70 5 5 5 5 4 3 5 5 2 4 5 2 0 0 0

GFSSW_prec_cloud_075.txt.gz
Cloud_Cover
100 100 100 100 100 100 100 100 100 100 100 100 100 87 37 5 0 0 3 5 5 2 0 2 0 0 32 46 100 100 100 100 100 100 78 26 16 5 5 5 7 5 5 4 0
100 100 100 100 100 64 100 58 100 77 77 49 55 5 5 4 5 0 0 1 25 5 90 0 5 2 0 26 94 96 100 100 92 100 100 97 100 5 5 1 21 25 5 5 5
100 100 100 100 98 30 69 75 6 9 6 21 6 1 3 5 2 0 0 0 0 6 50 87 4 5 5 3 6 20 100 100 97 100 100 100 100 100 16 5 3 5 5 6 77
36 72 5 5 6 5 13 8 7 11 80 97 84 3 0 0 0 0 1 0 0 3 2 100 45 23 53 5 2 5 77 99 100 100 100 100 100 100 29 5 5 5 5 5 5
0 0 0 0 0 0 0 4 1 11 69 20 12 56 3 0 1 0 0 0 0 0 5 42 99 60 87 54 8 21 5 98 99 100 100 100 100 100 50 5 5 7 5 5 3
0 0 3 4 0 0 0 0 0 0 0 0 4 10 46 26 0 0 0 4 0 1 21 3 33 61 9 67 6 5 5 86 100 100 100 100 100 100 99 100 96 70 6 50 7
0 0 4 0 0 0 0 0 0 0 2 8 46 43 67 0 0 0 0 5 3 1 19 88 3 5 8 5 7 27 88 90 100 100 100 100 100 100 100 94 98 100 100 95 91
0 22 0 0 0 0 0 0 0 0 6 19 39 63 26 0 0 0 0 0 5 1 68 98 73 5 4 23 5 55 83 97 100 100 100 100 100 100 100 100 94 100 99 99 100
2 3 0 0 0 0 0 0 0 0 0 8 22 4 8 0 0 0 0 0 0 2 5 30 4 5 58 92 36 38 69 98 100 100 100 100 100 100 100 100 100 100 100 100 100
0 0 0 0 0 0 0 0 0 1 0 0 0 9 0 0 0 0 0 0 0 0 4 1 0 5 49 28 5 70 19 52 36 92 100 100 100 100 100 100 100 100 100 100 100
5 2 0 0 0 0 0 0 0 0 0 0 0 0 0 0 0 0 0 0 0 0 0 0 1 0 5 5 5 5 4 5 5 5 62 100 100 100 100 100 100 100 100 100 100
100 100 2 0 0 0 0 0 0 0 0 0 2 0 0 0 0 0 0 0 0 0 0 0 0 2 5 5 5 5 0 0 2 5 5 58 100 100 100 100 100 95 100 100 77
11 92 50 4 2 5 5 3 0 4 4 0 11 0 4 17 4 26 1 2 1 0 0 17 0 0 1 0 0 0 0 0 5 12 75 11 78 100 100 100 100 100 100 100 85
0 3 2 5 16 4 4 0 4 10 48 3 5 5 97 100 1 60 45 60 3 0 0 0 0 0 8 1 4 0 46 6 6 47 3 2 5 100 42 81 100 100 100 100 100
3 2 5 4 40 5 2 5 32 100 55 90 55 6 48 74 2 3 100 100 4 95 2 2 0 3 4 42 16 5 0 2 53 5 1 0 0 4 0 1 54 98 100 100 100
2 4 5 5 79 5 4 5 31 80 90 100 100 100 100 72 20 92 100 100 92 100 93 61 52 62 3 61 45 38 5 37 34 67 3 0 0 0 0 0 34 100 98 72 37
1 4 6 9 100 32 4 4 6 75 79 99 100 99 82 21 22 90 100 100 100 100 71 100 100 100 63 84 68 99 28 25 12 15 0 0 0 0 0 0 0 78 100 100 100
5 5 1 35 100 100 5 5 8 89 96 98 100 100 100 42 80 100 100 100 100 100 100 100 100 100 100 98 4 100 99 94 65 4 0 0 0 0 0 0 2 4 4 17 7
8 5 0 62 100 100 67 20 5 5 98 100 100 100 99 100 83 100 100 100 100 100 99 100 100 100 100 100 100 92 6 26 39 12 4 1 0 0 0 1 11 6 7 26 91
3 4 0 44 86 100 96 17 5 19 100 100 100 100 100 100 100 100 100 100 100 100 100 100 90 99 100 100 100 100 100 99 56 34 5 25 0 0 1 15 11 8 36 97 33
5 2 5 5 93 100 100 6 41 42 100 100 100 100 100 100 100 100 100 100 100 100 100 100 100 100 100 100 100 100 84 11 15 5 67 23 4 30 30 74 100 100 100 100 100
5 3 1 4 40 100 100 45 5 20 100 100 100 100 100 100 95 100 100 100 100 100 100 100 100 100 98 99 100 57 34 14 3 90 100 89 46 99 100 100 100 100 100 100 100
0 0 5 0 79 100 100 100 5 7 96 21 78 100 100 100 100 100 100 100 100 100 100 100 100 99 100 75 14 5 40 71 100 100 100 98 98 100 100 100 100 100 100 99 86
4 0 4 0 23 93 100 100 14 4 5 5 56 99 100 100 100 100 100 100 100 87 56 100 100 100 95 6 10 11 5 5 92 100 100 90 100 100 100 80 51 13 8 54 92
67 4 4 0 17 74 96 100 100 33 3 92 8 100 100 100 100 100 100 100 100 100 100 100 100 100 92 82 46 46 40 5 5 4 20 3 42 95 56 30 76 98 100 58 77
100 10 1 0 0 87 50 100 98 100 9 5 66 99 100 100 100 100 100 99 100 100 100 100 100 100 100 100 98 100 100 100 100 100 100 74 5 76 100 100 100 100 100 100 29
100 100 2 0 0 59 14 91 100 100 12 5 5 55 100 100 99 69 97 100 100 92 100 100 100 100 97 99 100 100 99 85 34 32 89 100 100 100 99 73 95 69 10 4 4

GFSSW_prec_cloud_078.txt.gz
Cloud_Cover
100 54 100 100 100 100 99 100 100 100 100 78 100 100 42 50 25 10 4 5 1 0 0 0 0 1 0 0 0 2 80 100 89 86 7 93 97 17 81 100 39 94 5 0 5
100 100 100 100 100 100 100 100 99 89 59 100 100 100 100 100 100 89 100 19 8 3 0 0 0 5 5 0 0 0 23 100 91 82 42 45 100 100 62 79 43 12 72 5 1
51 36 97 100 100 100 100 89 100 100 100 100 100 99 100 100 98 100 46 11 77 9 5 0 0 5 49 1 0 0 0 23 6 83 100 100 100 100 100 100 77 5 5 5 5
75 5 4 7 0 0 0 2 1 82 99 100 99 99 58 4 84 14 5 4 0 0 3 1 0 4 39 52 6 0 5 2 5 12 91 100 59 98 86 100 100 100 18 5 5
39 10 4 17 0 0 0 0 0 2 27 41 68 100 8 1 4 0 0 0 4 2 9 51 3 5 3 58 100 5 24 24 38 84 64 91 100 100 98 100 78 100 99 71 30
1 7 8 0 0 0 0 0 0 3 13 10 28 98 83 33 0 0 0 0 0 4 5 2 0 5 5 49 93 78 51 99 5 60 98 51 93 100 98 96 85 100 100 100 44
14 2 67 0 0 0 0 0 0 0 0 21 97 100 62 0 0 0 0 0 0 0 4 1 0 0 3 0 37 100 16 42 14 5 100 100 100 100 100 100 100 100 100 100 100
49 74 9 3 0 0 4 1 0 0 20 96 100 100 29 0 0 0 0 0 0 0 4 0 0 0 0 0 5 100 100 73 88 39 100 100 100 100 100 100 100 78 89 70 16
0 0 0 0 0 0 0 0 0 0 1 26 84 80 24 0 0 0 0 0 0 0 0 0 0 0 0 0 8 57 100 100 100 100 97 100 100 100 100 100 100 100 81 53 40
0 0 0 0 0 0 0 0 0 0 0 0 4 53 0 0 0 0 0 0 0 0 0 0 0 0 0 32 12 22 82 100 100 100 100 100 100 100 100 100 100 100 100 91 71
0 0 0 0 0 0 10 1 0 0 0 0 0 0 0 0 0 0 0 0 0 0 0 0 0 0 12 0 80 100 19 93 100 100 98 71 100 100 100 100 100 100 100 73 23
0 0 0 0 0 0 0 0 0 2 0 0 0 0 0 6 0 0 5 0 0 0 0 4 2 0 44 96 100 100 100 17 35 96 87 83 100 100 100 100 100 100 100 81 84
0 0 0 1 2 0 0 0 0 0 0 0 2 0 4 68 2 10 97 42 0 0 0 41 3 0 1 7 87 100 67 98 87 43 90 100 100 64 37 64 100 100 100 100 100
0 0 0 0 27 0 0 0 0 0 0 5 34 2 10 100 6 10 99 89 38 0 0 2 2 0 0 2 18 100 32 66 100 100 88 89 100 24 5 82 100 74 36 95 100
0 0 0 0 79 7 3 0 0 2 5 22 90 82 51 100 20 100 100 100 100 97 52 0 0 10 0 0 4 86 86 100 100 100 98 20 9 96 5 5 100 64 5 47 98
1 0 0 0 5 72 6 5 2 2 12 64 66 100 52 99 100 100 100 100 100 100 46 88 54 3 0 3 4 5 36 97 100 100 88 5 5 7 4 5 5 4 1 0 0
16 3 7 0 0 94 56 5 14 4 6 36 60 100 98 30 100 100 100 100 100 100 97 95 97 40 23 0 4 97 46 16 78 61 40 5 0 26 5 5 0 1 0 0 0
80 7 0 0 0 80 100 6 36 5 51 58 76 92 83 100 77 100 100 100 100 100 100 100 100 100 100 92 86 80 100 100 94 67 91 31 0 0 0 0 5 1 0 0 0
100 98 0 0 0 4 100 70 90 5 71 60 100 45 94 93 100 100 100 100 100 100 100 100 100 100 100 100 99 99 100 100 99 60 31 2 2 0 5 0 0 0 0 0 0
94 100 11 0 0 1 92 95 95 5 38 58 85 98 100 100 100 100 100 100 100 100 100 98 100 100 100 100 100 100 100 94 100 70 71 5 3 0 1 1 0 2 2 2 12
100 100 99 4 0 4 56 100 100 5 4 62 66 100 100 100 100 100 100 87 100 94 100 100 100 100 100 100 100 100 100 100 93 48 18 3 0 0 0 0 38 72 15 5 7
100 100 100 7 0 0 3 35 82 14 5 45 13 98 100 100 100 100 100 100 100 100 56 100 73 96 100 100 100 100 100 100 98 99 100 33 0 3 4 45 100 100 92 96 100
100 100 100 100 6 5 3 6 12 71 22 4 5 23 18 44 100 85 92 100 100 100 100 100 100 100 100 100 100 100 100 98 87 17 0 0 9 62 100 100 100 100 100 100 100
98 100 100 100 92 5 5 1 30 94 100 96 1 4 87 85 99 100 100 90 100 87 100 100 100 100 100 68 26 6 6 5 5 5 5 39 100 100 100 100 100 100 100 100 100
100 100 100 100 100 6 5 1 100 81 100 100 4 1 5 57 52 100 100 96 100 100 100 100 100 100 100 100 100 91 60 49 5 5 35 95 100 100 100 100 100 100 84 46 89
100 100 100 100 100 21 5 14 6 100 100 86 94 5 3 14 17 96 100 100 100 100 100 100 100 100 100 100 100 100 100 100 100 100 58 95 100 100 100 93 77 29 67 94 6
100 100 100 100 100 47 5 5 0 100 100 100 96 26 31 5 42 93 99 71 100 100 94 96 100 100 100 100 100 100 100 100 100 100 100 100 94 83 87 89 100 96 61 20 7

GFSSW_prec_cloud_081.txt.gz
Cloud_Cover
100 100 100 100 100 100 100 100 100 93 85 100 100 100 100 98 80 10 5 5 5 1 0 0 0 0 0 0 0 5 4 5 5 5 74 5 87 26 11 62 100 97 91 85 100
95 100 100 100 99 100 100 100 100 100 100 100 100 100 70 100 34 87 76 73 5 10 5 4 0 0 0 0 0 0 2 5 2 5 5 42 33 28 66 100 99 100 100 100 100
12 3 6 92 100 100 100 100 100 100 100 100 100 100 100 100 100 97 97 100 100 98 80 7 3 0 0 0 0 0 0 4 1 5 5 7 100 22 85 99 97 100 100 100 100
0 0 0 0 0 2 0 0 2 94 100 100 100 100 95 96 99 100 100 100 100 100 100 98 52 5 13 3 5 0 5 17 3 3 38 64 25 100 31 96 96 73 100 100 100
0 0 1 5 43 35 1 5 4 95 100 100 100 100 18 11 0 0 4 33 78 99 100 100 100 71 13 32 7 2 5 31 14 5 8 62 26 5 98 82 100 97 100 100 100
0 19 40 40 0 2 0 0 2 4 8 80 100 100 100 32 0 0 0 1 1 0 3 29 54 77 33 17 5 4 41 18 8 5 41 23 5 30 92 100 96 100 100 100 100
0 4 8 1 0 0 0 0 5 9 17 94 100 100 98 25 0 0 0 0 0 0 0 0 0 4 3 5 5 5 5 5 86 85 5 90 95 60 99 69 96 100 96 100 99
13 19 0 0 0 0 0 0 0 23 47 81 73 96 27 0 0 0 0 0 0 0 0 0 0 0 0 5 75 100 31 5 36 100 96 9 94 100 100 100 77 89 100 100 100
0 1 0 0 0 0 0 0 0 0 10 35 76 69 24 0 0 0 0 0 0 0 0 0 0 0 0 1 23 86 5 61 56 100 100 100 53 99 100 100 100 100 100 100 100
0 0 0 0 0 0 2 0 0 0 0 4 44 52 0 0 0 0 0 0 0 0 0 0 0 0 0 0 0 2 5 12 17 100 100 100 100 96 80 100 100 100 91 100 100
0 0 0 0 0 0 5 3 0 0 0 0 0 0 0 0 0 0 0 0 0 0 0 0 0 0 0 0 36 21 13 5 28 74 100 100 100 100 100 100 100 100 100 100 56
0 4 0 0 0 0 5 5 0 0 0 0 0 0 0 0 0 1 3 48 2 0 2 15 0 0 0 3 100 16 99 80 15 99 100 100 100 100 100 100 100 100 100 100 100
40 5 4 0 0 0 0 5 0 0 0 0 0 0 2 5 0 0 21 100 97 5 100 0 0 0 0 1 4 33 44 100 100 100 100 100 100 100 100 100 100 100 100 100 100
58 5 5 4 0 0 0 5 0 0 0 0 3 6 19 20 3 5 99 100 55 7 4 0 2 0 0 5 22 9 68 100 100 100 100 100 82 100 100 100 100 100 52 94 100
100 100 10 5 9 0 0 5 5 0 0 1 5 5 42 5 5 90 63 100 100 89 27 0 0 67 0 0 15 5 5 9 59 100 100 100 98 100 100 100 100 84 5 5 38
100 100 100 5 17 1 0 5 5 5 2 28 50 5 52 5 97 90 100 100 98 100 27 72 0 2 0 0 1 5 5 5 84 100 100 100 100 100 100 100 100 36 5 5 5
100 100 64 100 5 4 0 5 16 5 4 81 5 5 5 5 76 70 100 100 100 100 100 96 100 73 30 0 2 33 53 82 64 71 100 100 100 100 100 100 100 100 69 5 5
98 100 94 77 89 5 5 2 76 5 5 1 5 5 13 5 39 87 100 100 100 100 100 100 100 100 98 0 0 1 22 16 34 99 100 100 100 100 100 100 100 98 26 5 5
83 100 100 100 94 6 2 0 7 25 8 18 8 13 89 50 68 94 100 100 100 100 100 100 100 96 97 66 57 6 17 75 45 50 64 40 10 79 100 100 100 64 57 48 5
58 98 100 100 98 38 20 4 4 100 67 8 53 100 68 52 100 97 98 86 100 100 100 100 100 72 100 100 39 84 89 67 100 88 30 67 42 85 100 98 16 20 100 91 30
35 48 100 100 100 83 59 19 0 50 100 29 5 74 89 100 29 73 100 100 100 100 100 100 100 100 100 100 99 100 100 99 100 99 62 30 99 100 100 27 5 5 5 5 5
47 64 95 80 100 64 100 16 3 0 97 100 24 2 50 10 87 100 91 100 71 100 82 100 100 100 100 100 96 59 100 100 99 84 19 65 34 100 92 79 55 6 5 5 5
88 37 79 96 72 83 90 89 45 2 4 99 85 9 3 40 23 94 98 85 100 93 97 95 89 85 100 100 100 100 100 100 100 71 5 20 77 60 48 4 5 5 5 38 90
100 90 68 74 40 100 46 94 93 5 0 7 99 96 1 5 5 96 99 100 100 100 95 100 100 92 84 100 100 100 88 65 23 100 28 14 67 96 5 5 5 58 100 80 92
100 100 58 91 31 50 76 85 75 83 3 4 24 96 14 0 5 78 59 100 100 100 100 97 100 100 100 96 89 100 100 100 100 100 71 43 21 12 40 98 99 99 95 97 100
100 100 100 93 70 49 99 94 67 52 17 1 5 98 48 0 1 5 86 83 98 100 100 100 100 100 100 100 100 74 38 10 8 18 14 38 67 74 98 100 100 100 89 92 100
99 100 100 91 43 89 82 94 79 95 92 3 0 56 100 4 0 3 5 100 100 98 100 100 100 99 100 100 100 100 100 100 100 98 100 100 100 100 100 100 100 100 100 100 100

GFSSW_prec_cloud_084.txt.gz
Cloud_Cover
21 52 49 100 100 100 100 100 100 100 100 100 100 100 100 100 100 100 100 100 100 100 98 10 29 3 38 19 3 0 0 0 3 1 10 7 55 90 15 5 87 34 23 5 20
2 12 8 10 39 98 100 100 100 100 100 100 100 100 100 100 100 100 100 100 100 100 100 97 80 5 3 0 0 0 0 0 3 5 5 23 37 5 33 5 5 87 14 79 100
0 11 17 5 12 6 6 100 78 100 100 100 100 100 100 100 100 100 100 100 100 100 100 100 74 28 5 12 3 0 0 0 0 0 5 8 8 5 5 36 39 6 60 96 100
7 9 23 17 18 0 1 7 0 0 4 45 100 100 100 100 100 100 100 100 100 100 87 100 100 86 6 83 100 4 0 5 0 0 1 5 5 93 18 37 5 5 48 100 100
15 33 53 19 21 10 13 7 0 0 14 15 12 36 1 20 1 2 66 92 86 100 100 100 100 100 66 86 88 6 5 5 5 1 0 1 76 100 94 69 15 12 90 100 100
0 6 23 10 4 0 0 6 6 16 26 7 92 99 27 19 0 0 0 0 0 1 0 19 78 100 97 96 96 99 42 100 8 5 3 2 7 89 98 5 36 5 14 100 100
6 9 2 6 5 8 8 21 23 63 100 100 85 76 52 2 0 0 0 0 0 0 0 0 0 2 49 100 100 100 100 91 80 13 62 5 5 96 100 97 94 40 5 23 100
5 14 16 12 15 6 7 37 58 87 97 100 72 52 28 0 0 0 0 0 0 0 0 0 0 0 0 0 61 100 100 100 100 100 100 74 77 94 100 100 100 100 100 98 100
2 1 2 7 5 2 0 9 3 0 10 12 1 1 0 0 0 0 0 0 0 0 0 0 0 0 0 0 0 0 85 100 100 100 100 99 30 77 100 100 100 100 100 100 100
8 5 24 64 0 0 0 0 0 0 4 5 3 1 0 0 0 0 0 0 0 0 0 0 0 0 0 0 0 0 0 0 25 99 100 27 5 100 100 100 100 100 100 100 100
100 48 7 38 5 0 16 0 0 0 2 0 0 0 0 0 0 0 0 0 0 0 0 0 0 0 0 0 0 0 0 3 17 91 100 98 62 86 100 100 100 100 100 100 100
5 5 5 41 6 1 0 0 0 0 0 0 0 0 0 0 0 0 0 0 0 5 2 0 0 0 0 0 0 3 44 4 5 26 100 100 100 100 100 100 100 100 100 100 100
15 5 5 42 26 18 0 0 0 2 0 0 0 0 0 0 0 0 1 5 5 98 91 34 1 0 0 0 0 33 98 95 63 73 100 100 99 100 100 100 100 100 100 100 100
16 14 6 5 19 27 4 0 0 0 0 0 5 2 0 0 1 1 5 5 76 90 63 100 100 21 0 0 0 38 82 99 98 99 100 100 47 89 48 100 100 100 100 100 100
93 5 11 5 88 82 13 3 0 0 0 1 2 0 2 3 7 5 60 100 100 100 100 100 100 0 0 0 0 0 0 0 23 97 94 83 34 100 100 100 100 100 100 100 100
16 68 16 19 28 53 20 5 0 0 5 5 3 1 35 6 14 5 14 100 100 100 100 100 52 11 98 25 0 1 39 83 43 99 60 100 30 100 100 100 100 100 100 100 100
46 89 59 49 57 13 18 5 4 0 4 5 2 5 33 34 44 60 46 100 100 100 100 100 94 89 100 87 24 100 100 100 82 14 33 97 51 100 100 100 100 100 100 89 62
50 82 100 60 45 88 6 14 5 5 0 6 5 14 8 5 100 100 23 100 100 100 100 89 21 100 100 78 2 100 100 100 71 24 100 100 98 100 100 100 100 100 100 93 64
97 85 100 97 40 56 98 13 30 6 5 18 37 5 5 75 40 100 74 100 100 100 100 100 100 99 100 100 12 6 23 71 96 13 94 100 100 100 100 100 100 100 100 100 100
100 82 90 100 100 24 99 57 37 36 5 5 74 13 5 34 48 100 74 70 95 100 100 100 100 97 100 94 53 1 20 87 54 92 89 94 100 100 100 100 100 100 100 100 99
100 96 87 100 100 82 93 100 24 16 42 5 33 92 22 8 8 52 68 100 71 100 100 100 100 100 98 100 95 2 5 59 85 77 96 91 95 97 98 73 20 76 85 87 95
75 100 54 75 100 61 46 100 34 18 33 32 6 100 94 31 5 100 71 18 36 96 100 100 100 100 100 100 100 98 86 39 86 100 94 100 100 100 98 59 96 100 87 48 19
98 65 90 97 81 100 58 84 41 24 13 66 5 52 100 100 12 5 94 68 62 97 100 90 100 100 99 100 100 96 100 100 100 82 70 79 100 94 62 25 63 67 66 61 96
91 100 75 97 60 94 82 58 49 18 7 23 10 5 99 100 89 0 6 84 100 100 54 84 100 100 100 100 100 100 97 98 80 83 87 81 100 99 100 100 96 83 48 40 69
100 100 100 92 96 96 84 64 87 74 6 57 27 5 11 100 76 0 3 5 86 100 100 99 100 100 100 100 100 100 100 100 100 73 100 100 100 36 27 72 98 79 60 18 5
94 100 100 55 100 100 89 100 100 100 70 86 27 6 6 67 98 5 0 4 6 65 100 100 100 98 100 100 100 100 100 100 76 100 100 100 100 100 100 58 5 5 12 12 68
99 100 99 92 40 100 60 100 100 100 98 68 86 24 57 3 100 5 0 1 29 6 10 100 95 100 100 100 100 100 100 100 100 100 100 100 19 5 13 5 18 62 100 100 99

GFSSW_prec_cloud_087.txt.gz
Cloud_Cover
52 15 11 18 93 70 2 8 50 99 100 100 100 100 100 100 100 100 100 100 100 100 100 86 100 100 100 79 91 30 5 4 5 0 0 4 0 4 85 100 94 10 25 25 24
47 48 100 97 18 100 28 0 0 4 90 100 100 100 100 100 100 100 100 100 100 100 100 100 100 100 100 100 37 23 2 20 5 0 0 0 5 5 61 100 95 54 32 5 10
50 99 100 56 34 20 10 15 12 12 12 16 100 100 100 100 100 100 100 100 100 100 100 100 100 100 100 67 100 77 5 9 1 0 0 0 5 54 32 86 100 21 46 14 83
16 98 56 66 22 24 17 43 34 17 16 23 28 8 2 1 94 90 99 100 100 100 100 100 100 100 100 100 100 76 5 5 5 2 0 1 12 6 97 100 100 95 11 79 37
8 18 14 14 11 11 10 11 9 14 100 100 93 0 0 0 0 2 2 11 44 80 100 100 100 100 100 100 100 58 33 24 8 5 1 0 0 5 100 100 87 78 99 48 12
10 13 13 13 8 9 12 6 39 92 100 100 96 16 0 0 0 0 0 0 0 0 3 43 58 98 100 100 100 98 99 68 100 53 5 0 0 1 78 79 84 15 100 100 100
7 8 17 11 10 1 8 99 100 100 100 100 100 10 11 0 0 0 0 0 0 0 0 0 0 0 0 28 100 98 95 100 94 100 12 5 3 5 4 20 99 100 100 100 100
2 6 8 10 10 1 8 14 13 47 18 89 96 55 28 0 0 0 0 0 0 0 0 0 0 0 0 0 0 1 28 87 100 100 100 100 86 87 88 46 64 100 100 100 100
7 6 4 9 1 4 1 0 0 0 0 30 39 9 0 0 0 0 0 0 0 0 0 0 0 0 0 0 0 0 0 0 71 100 100 100 100 100 98 100 100 100 100 100 100
5 5 5 0 0 0 0 2 0 0 7 3 77 13 9 3 0 0 0 0 0 0 0 0 0 0 0 0 0 0 0 0 0 89 100 100 100 100 100 100 100 100 100 100 100
5 7 5 5 4 5 12 2 0 0 0 0 2 5 0 0 0 0 0 0 0 0 0 0 0 0 0 0 0 0 0 0 0 0 71 100 100 100 100 100 100 100 100 100 100
5 5 5 5 5 5 0 4 0 0 1 0 0 0 0 0 0 0 0 0 0 0 1 0 2 0 0 0 0 0 1 91 40 1 0 24 100 100 100 100 100 100 100 100 100
20 6 5 5 5 5 5 1 5 0 1 0 0 0 0 0 0 0 0 0 75 43 62 5 8 0 22 0 0 0 0 79 75 74 32 4 62 86 100 100 100 100 100 100 100
54 21 96 5 22 5 5 3 4 1 0 0 0 0 0 0 0 0 1 5 18 100 100 73 100 27 10 1 0 0 9 30 4 0 14 23 81 100 100 99 100 100 100 100 100
96 100 80 53 12 82 6 5 5 5 0 0 1 0 0 0 0 0 5 18 97 84 100 88 100 71 100 73 6 0 3 74 79 47 5 1 19 100 87 100 100 100 100 100 100
13 72 100 92 68 67 11 30 5 14 8 0 1 3 0 4 1 2 5 93 100 90 95 90 88 82 100 0 66 0 2 92 93 80 66 5 5 100 100 100 100 100 100 100 100
100 83 82 100 28 75 8 66 5 5 17 5 0 5 5 5 3 5 7 22 99 97 100 100 100 100 100 92 100 93 100 100 97 8 2 0 5 99 100 100 100 100 100 100 100
99 100 50 78 89 55 6 48 26 22 40 5 5 6 14 5 5 64 44 10 42 100 100 100 100 100 100 100 100 100 100 100 98 50 11 0 4 100 100 100 100 100 100 100 100
99 85 94 100 98 58 22 5 48 5 48 25 5 5 82 5 5 48 10 49 32 100 100 100 100 100 100 100 100 100 99 100 99 59 87 0 31 100 100 100 100 99 90 100 100
86 100 100 100 100 100 40 22 50 50 33 18 5 5 61 60 5 18 15 6 30 71 100 100 100 100 100 92 99 100 100 100 82 100 100 17 37 100 100 100 100 100 100 100 71
76 85 90 100 100 100 37 73 49 75 81 43 5 5 5 77 36 5 78 73 93 83 95 100 100 100 100 100 6 71 100 100 98 64 42 61 98 100 100 100 100 100 100 100 79
54 40 65 98 100 100 98 99 13 21 62 96 5 5 6 6 99 6 4 51 73 59 32 71 100 100 100 100 100 46 6 18 36 81 95 97 99 99 100 100 100 100 97 83 83
5 68 13 50 100 100 97 34 98 5 70 60 17 6 5 5 80 73 3 5 81 26 76 26 100 100 100 100 100 100 46 47 78 88 89 100 100 86 78 94 96 83 19 15 8
5 8 100 100 90 100 100 15 17 5 14 6 54 18 5 5 5 46 6 1 21 85 100 81 63 66 100 100 100 100 100 100 100 100 100 100 100 10 98 91 24 5 5 5 35
5 36 72 100 83 100 100 30 5 5 42 22 6 5 5 5 4 33 34 2 0 100 94 100 86 99 99 80 100 100 100 100 100 100 100 100 100 82 98 100 87 15 5 10 75
100 10 100 100 86 66 100 100 51 30 5 7 5 5 5 5 5 5 5 5 0 5 5 39 100 99 100 99 100 100 100 100 93 100 89 100 82 100 45 100 59 5 8 22 9
9 54 100 100 58 85 79 100 69 93 6 5 6 5 5 5 5 5 6 5 3 5 4 5 52 65 99 99 96 100 96 99 87 27 14 54 40 92 70 5 5 5 5 7 29

GFSSW_prec_cloud_093.txt.gz
Cloud_Cover
6 6 91 9 8 38 13 27 3 5 10 8 2 0 5 3 0 0 4 70 60 100 100 97 100 100 100 100 100 97 10 100 96 52 100 100 90 100 96 62 62 5 5 1 0
18 10 15 10 7 5 4 14 2 2 25 81 40 39 15 0 0 0 0 1 45 100 100 100 89 100 100 100 100 100 80 100 100 100 100 100 90 68 100 30 100 100 7 5 2
11 10 17 10 12 0 2 5 12 94 100 100 100 98 22 0 0 0 0 0 0 70 100 100 100 90 100 100 100 100 89 100 100 68 100 100 100 9 100 100 100 100 79 74 95
6 20 17 1 8 4 6 8 30 76 43 99 87 0 0 0 0 0 0 0 0 0 97 100 100 100 100 100 100 78 100 100 100 100 100 100 100 100 100 100 100 100 46 87 81
7 13 16 17 10 11 7 11 8 5 16 66 50 1 0 0 0 0 0 0 0 0 0 47 100 100 100 100 100 100 100 100 100 100 100 100 100 100 100 100 100 100 100 94 89
10 15 12 7 0 0 0 0 0 6 27 39 14 0 0 0 0 0 0 0 0 0 0 0 0 33 100 100 100 98 100 100 100 100 100 100 100 100 100 100 100 100 100 100 99
10 11 9 4 5 0 0 0 0 0 0 2 0 0 0 0 0 0 0 0 0 0 0 0 0 0 0 7 100 100 100 100 100 100 100 100 100 78 100 100 100 100 100 100 100
17 10 11 15 5 5 0 0 0 0 0 0 1 0 0 0 0 0 0 0 0 0 0 0 0 0 0 0 0 8 94 100 100 100 100 100 100 100 100 100 100 100 100 100 100
6 4 2 0 5 5 1 0 0 0 0 0 0 0 0 0 0 0 0 0 0 0 0 0 0 0 0 0 0 0 0 0 85 100 85 100 87 100 100 100 100 100 100 100 100
9 5 5 1 2 5 5 4 0 25 0 0 0 0 0 0 0 0 0 0 0 0 0 0 0 0 0 0 0 0 0 0 0 16 98 85 100 100 100 92 100 100 100 100 100
5 5 5 5 4 5 5 5 39 4 5 5 0 0 0 0 0 0 0 0 0 0 3 4 3 5 18 25 2 0 0 0 0 0 0 5 90 100 100 100 100 100 100 100 100
5 5 5 5 5 4 5 5 9 5 5 5 0 0 0 0 0 0 0 0 0 0 18 52 95 82 100 96 47 0 0 0 0 0 2 9 5 5 80 100 100 100 100 100 100
5 5 5 3 5 6 5 74 65 5 5 5 4 0 0 0 0 0 0 0 0 4 5 71 80 11 46 88 100 76 9 5 4 0 2 65 33 5 16 74 100 100 100 100 100
5 5 5 5 12 5 5 100 59 5 33 5 4 0 0 0 0 0 0 0 0 5 3 85 32 78 85 98 100 100 99 69 5 5 9 98 99 96 98 96 16 82 100 100 100
5 5 5 0 1 5 5 74 52 82 7 3 1 0 0 0 0 0 0 0 0 0 76 13 42 77 15 79 26 63 100 60 100 12 100 72 97 5 67 94 31 0 60 100 100
16 5 5 0 0 5 5 5 58 80 4 0 0 0 0 0 0 0 0 1 1 2 85 57 100 24 12 98 2 22 91 100 95 76 100 100 100 29 83 15 9 5 0 32 100
100 24 12 5 5 5 5 5 6 84 5 0 0 0 0 0 0 0 1 6 0 2 8 86 100 65 88 69 77 81 100 100 100 81 100 100 100 100 64 100 68 64 44 0 89
100 100 29 5 5 5 5 8 5 5 5 5 4 0 0 0 0 0 4 1 0 3 8 36 77 63 20 99 100 100 100 100 100 73 68 100 100 100 95 96 0 4 0 0 3
99 100 6 5 71 64 9 59 5 5 80 2 3 0 4 3 0 1 5 0 0 21 2 24 94 33 96 97 100 100 100 100 100 100 100 100 97 100 44 14 0 0 0 0 0
40 28 78 31 100 77 11 56 33 31 100 5 4 2 0 0 0 0 3 0 0 5 20 26 76 57 27 71 100 100 100 100 100 100 100 100 100 99 17 0 5 4 0 1 5
48 38 52 100 100 57 18 10 50 99 100 18 2 4 0 0 0 0 0 0 0 0 5 5 48 72 100 100 100 100 82 100 100 100 100 100 100 38 96 4 1 34 4 2 12
84 87 38 14 33 91 26 13 43 100 100 53 5 5 4 3 0 2 0 0 0 0 0 0 5 29 89 88 89 95 100 100 100 100 100 100 98 36 41 100 100 100 100 100 55
100 100 100 55 97 46 100 5 30 100 100 37 4 5 5 4 2 0 0 0 0 0 0 3 1 3 87 100 100 100 40 42 100 100 100 100 100 100 100 28 44 77 67 66 54
100 99 100 100 99 15 64 36 7 54 87 5 5 5 1 3 0 5 0 0 0 0 0 0 4 5 2 14 48 99 94 98 100 100 100 100 100 100 98 100 100 100 100 100 100
98 100 100 100 100 33 5 50 5 19 100 47 5 28 5 2 5 5 5 0 0 0 0 0 0 0 5 5 19 7 94 92 100 100 100 100 100 94 100 100 100 100 97 78 96
100 92 100 100 100 100 24 57 100 100 100 100 100 73 8 16 5 5 3 4 0 0 0 0 0 0 0 5 4 88 67 64 16 21 80 97 100 82 99 100 100 88 76 96 84
100 100 100 100 100 100 87 100 100 100 100 100 100 100 100 100 58 5 5 0 0 0 0 0 0 0 0 0 5 5 94 70 83 99 80 70 67 71 96 99 100 100 90 41 5

GFSSW_prec_cloud_096.txt.gz
Cloud_Cover
17 18 15 41 36 6 4 4 3 13 20 29 100 100 90 2 0 4 1 24 3 0 13 86 99 100 100 100 100 100 100 100 100 100 100 100 100 99 100 100 100 100 72 70 5
11 5 11 10 18 7 0 0 0 17 8 76 52 4 20 10 0 0 0 0 0 0 0 0 5 52 100 100 100 100 100 100 100 100 100 100 100 100 64 100 100 100 100 100 68
16 16 24 4 0 12 0 1 4 12 16 7 11 16 10 0 0 0 0 0 0 0 0 0 0 56 97 100 100 100 86 100 100 100 100 100 100 100 31 98 98 100 87 100 44
11 18 10 12 6 0 0 11 1 8 14 11 12 0 0 0 0 0 0 0 0 0 0 0 0 0 26 100 100 100 100 100 100 100 100 55 97 100 94 100 100 100 100 100 77
14 0 9 0 4 0 0 1 0 0 15 9 1 0 0 0 0 0 0 0 0 0 0 0 0 0 0 64 100 100 100 100 100 100 100 100 91 100 62 100 100 100 100 100 100
2 14 12 13 4 0 0 0 0 0 7 0 0 0 0 0 0 0 0 0 0 0 0 0 0 0 0 0 26 100 100 100 100 100 100 100 100 100 98 100 98 100 100 100 100
16 13 7 9 0 0 0 0 0 0 0 0 0 0 0 0 0 0 0 0 0 0 0 0 0 0 0 0 0 0 94 100 100 100 100 100 100 100 100 94 100 100 100 100 100
1 0 0 4 0 0 0 0 0 0 0 0 0 0 0 0 0 0 0 0 0 0 0 0 0 0 0 0 0 0 0 71 100 100 100 100 84 100 100 100 100 100 100 100 100
9 3 0 0 0 0 0 0 0 0 0 0 0 0 0 0 0 0 0 0 0 0 0 0 0 0 0 0 0 0 0 0 0 99 100 78 100 100 100 100 100 99 100 100 100
6 8 1 0 0 0 0 0 0 2 0 0 0 0 0 0 0 0 0 0 0 0 0 2 2 0 5 19 3 27 1 0 0 0 30 99 34 100 100 100 100 100 100 100 100
0 0 0 0 0 0 0 0 4 4 5 2 0 0 0 0 0 0 0 0 0 0 4 26 5 24 14 49 44 60 5 4 0 0 0 0 86 100 100 100 100 100 100 100 100
5 0 0 0 0 2 0 0 5 30 5 0 0 0 0 0 0 0 0 0 0 0 7 4 6 56 54 10 15 39 16 5 0 0 0 0 0 97 100 100 100 100 100 100 100
18 11 4 5 0 0 0 0 0 5 5 0 0 0 0 0 0 0 0 0 0 17 10 4 30 36 88 90 70 17 61 5 21 0 3 0 0 0 73 100 100 100 100 100 100
100 100 44 5 8 5 5 0 0 0 3 2 0 0 0 0 0 0 0 0 0 0 28 22 41 33 56 6 89 20 50 15 53 98 15 0 0 0 0 71 12 100 100 100 100
100 100 100 7 8 5 5 5 5 0 3 3 0 0 0 0 0 0 0 0 0 0 87 55 5 90 1 54 79 34 91 96 94 84 78 0 85 0 2 47 46 58 50 100 100
77 100 100 100 5 6 5 5 5 3 35 76 0 0 0 0 0 0 0 4 0 0 0 18 5 54 12 69 56 100 100 100 100 65 31 0 25 3 86 51 84 43 32 26 25
5 76 100 100 8 5 100 56 5 5 61 100 0 0 0 0 0 0 3 88 0 0 0 5 26 44 83 100 99 100 100 100 100 100 87 82 68 100 24 16 100 4 98 100 0
15 5 47 5 31 5 100 5 5 5 66 100 4 0 0 0 0 0 3 2 0 0 0 1 5 67 20 35 100 100 100 100 100 100 100 100 100 100 100 85 100 83 96 54 4
94 68 5 23 82 8 81 94 5 5 5 82 52 0 0 2 2 0 3 0 0 0 0 0 5 38 39 100 100 100 100 100 100 100 100 100 100 100 100 100 100 98 98 39 12
94 74 76 92 61 92 88 90 96 5 5 30 5 8 2 0 3 5 2 0 0 0 0 0 0 34 93 83 58 100 100 100 100 100 100 100 100 98 100 100 100 100 76 5 4
86 100 100 100 100 100 100 80 62 12 5 5 15 100 14 4 11 8 0 0 0 0 0 0 0 2 59 67 32 39 100 100 100 100 98 100 100 100 100 100 100 73 21 0 0
76 96 88 100 100 100 100 81 6 61 12 5 99 100 100 72 100 57 0 0 0 0 0 0 0 0 5 87 61 65 90 100 100 100 100 84 17 96 100 100 30 6 98 2 90
100 100 40 99 94 92 100 100 49 10 5 6 100 100 100 100 100 97 0 0 0 0 0 0 0 0 0 0 0 86 63 72 100 100 100 100 74 85 100 100 100 23 71 91 92
100 100 100 100 100 100 86 98 52 20 5 100 100 100 100 100 99 18 5 0 0 0 0 0 0 0 0 0 0 0 10 7 53 99 73 96 100 100 100 100 100 100 99 100 100
100 100 94 100 100 98 100 100 38 100 57 94 100 100 100 100 57 37 28 1 0 0 0 0 0 0 0 0 0 0 5 8 10 72 100 100 100 99 100 100 100 100 100 100 100
100 100 97 100 100 100 100 100 7 86 100 85 100 100 100 100 58 14 21 2 0 0 0 0 0 0 0 0 0 0 0 6 5 9 100 100 100 100 100 100 100 100 100 100 100
100 100 100 100 100 100 97 100 89 39 41 9 76 100 99 100 100 15 10 3 0 0 0 0 0 0 0 0 0 1 5 3 5 5 100 72 80 90 97 96 98 100 100 100 100